Time,TemperatureF,DewpointF,PressureIn,WindDirection,WindDirectionDegrees,WindSpeedMPH,WindSpeedGustMPH,Humidity,HourlyPrecipIn,Conditions,Clouds,dailyrainin,SoftwareType,DateUTC
2013-04-22 00:02:00,63.7,7.8,30.01,West,270,3.4,6.7,11,0.00,,,0.00,WUHU216HW,2013-04-22 07:02:00,
2013-04-22 00:03:00,63.5,7.7,30.01,NW,315,1.8,6.7,11,0.00,,,0.00,WUHU216HW,2013-04-22 07:03:00,
2013-04-22 00:04:00,63.5,7.7,30.01,NW,315,4.0,6.7,11,0.00,,,0.00,WUHU216HW,2013-04-22 07:04:00,
2013-04-22 00:07:00,63.4,7.5,30.01,NW,315,2.2,6.7,11,0.00,,,0.00,WUHU216HW,2013-04-22 07:07:00,
2013-04-22 00:08:00,63.4,7.5,30.01,NW,315,3.4,6.7,11,0.00,,,0.00,WUHU216HW,2013-04-22 07:08:00,
2013-04-22 00:09:00,63.4,7.5,30.01,West,270,1.8,6.7,11,0.00,,,0.00,WUHU216HW,2013-04-22 07:09:00,
2013-04-22 00:12:00,63.0,7.2,30.01,SSW,203,3.8,4.0,11,0.00,,,0.00,WUHU216HW,2013-04-22 07:12:00,
2013-04-22 00:13:00,63.0,7.2,30.01,SSW,203,3.6,4.0,11,0.00,,,0.00,WUHU216HW,2013-04-22 07:13:00,
2013-04-22 00:14:00,62.8,7.1,30.01,SSW,203,2.2,3.8,11,0.00,,,0.00,WUHU216HW,2013-04-22 07:14:00,
2013-04-22 00:15:00,62.6,6.9,30.01,SSW,203,1.8,3.8,11,0.00,,,0.00,WUHU216HW,2013-04-22 07:15:00,
2013-04-22 00:17:00,62.5,6.9,30.00,SSW,203,0.9,3.8,11,0.00,,,0.00,WUHU216HW,2013-04-22 07:17:00,
2013-04-22 00:18:00,62.3,6.7,30.00,SSW,203,0.7,3.8,11,0.00,,,0.00,WUHU216HW,2013-04-22 07:18:00,
2013-04-22 00:20:00,62.3,6.7,30.01,SW,225,0.0,3.8,11,0.00,,,0.00,WUHU216HW,2013-04-22 07:20:00,
2013-04-22 00:23:00,61.7,7.8,30.01,SSW,203,2.9,3.8,12,0.00,,,0.00,WUHU216HW,2013-04-22 07:23:00,
2013-04-22 00:24:00,61.6,7.7,30.01,SSW,203,4.3,4.3,12,0.00,,,0.00,WUHU216HW,2013-04-22 07:24:00,
2013-04-22 00:25:00,61.6,7.7,30.01,SW,225,3.1,4.5,12,0.00,,,0.00,WUHU216HW,2013-04-22 07:25:00,
2013-04-22 00:28:00,60.8,7.1,30.01,SSW,203,3.6,4.5,12,0.00,,,0.00,WUHU216HW,2013-04-22 07:28:00,
2013-04-22 00:29:00,60.5,6.9,30.01,SSW,203,3.8,4.5,12,0.00,,,0.00,WUHU216HW,2013-04-22 07:29:00,
2013-04-22 00:30:00,60.5,6.9,30.01,SSW,203,3.8,4.5,12,0.00,,,0.00,WUHU216HW,2013-04-22 07:30:00,
2013-04-22 00:31:00,60.1,6.5,30.01,SSW,203,2.9,4.5,12,0.00,,,0.00,WUHU216HW,2013-04-22 07:31:00,
2013-04-22 00:33:00,59.9,6.4,30.01,SSW,203,2.2,4.5,12,0.00,,,0.00,WUHU216HW,2013-04-22 07:33:00,
2013-04-22 00:34:00,59.9,6.4,30.01,SSW,203,2.5,4.0,12,0.00,,,0.00,WUHU216HW,2013-04-22 07:34:00,
2013-04-22 00:35:00,59.8,6.2,30.01,SW,225,1.8,4.0,12,0.00,,,0.00,WUHU216HW,2013-04-22 07:35:00,
2013-04-22 00:36:00,59.8,6.2,30.01,SW,225,1.6,4.0,12,0.00,,,0.00,WUHU216HW,2013-04-22 07:36:00,
2013-04-22 00:38:00,59.6,6.0,30.01,SSW,203,3.4,4.0,12,0.00,,,0.00,WUHU216HW,2013-04-22 07:38:00,
2013-04-22 00:39:00,59.4,6.0,30.01,SW,225,1.8,4.0,12,0.00,,,0.00,WUHU216HW,2013-04-22 07:39:00,
2013-04-22 00:40:00,59.4,6.0,30.01,SW,225,1.1,3.6,12,0.00,,,0.00,WUHU216HW,2013-04-22 07:40:00,
2013-04-22 00:41:00,59.4,7.5,30.00,SW,225,1.8,3.6,13,0.00,,,0.00,WUHU216HW,2013-04-22 07:41:00,
2013-04-22 00:44:00,59.2,7.3,30.00,SW,225,1.1,3.6,13,0.00,,,0.00,WUHU216HW,2013-04-22 07:44:00,
2013-04-22 00:45:00,59.0,7.2,30.01,WSW,248,1.8,3.6,13,0.00,,,0.00,WUHU216HW,2013-04-22 07:45:00,
2013-04-22 00:46:00,59.0,7.2,30.01,SW,225,1.8,3.6,13,0.00,,,0.00,WUHU216HW,2013-04-22 07:46:00,
2013-04-22 00:49:00,58.7,6.8,30.01,SW,225,1.3,3.6,13,0.00,,,0.00,WUHU216HW,2013-04-22 07:49:00,
2013-04-22 00:50:00,58.7,6.8,30.01,WSW,248,1.6,2.2,13,0.00,,,0.00,WUHU216HW,2013-04-22 07:50:00,
2013-04-22 00:51:00,58.7,6.8,30.01,WSW,248,1.3,2.0,13,0.00,,,0.00,WUHU216HW,2013-04-22 07:51:00,
2013-04-22 00:52:00,58.5,6.8,30.01,WSW,248,1.1,2.0,13,0.00,,,0.00,WUHU216HW,2013-04-22 07:52:00,
2013-04-22 00:54:00,58.3,6.6,30.01,SW,225,1.8,2.5,13,0.00,,,0.00,WUHU216HW,2013-04-22 07:54:00,
2013-04-22 00:55:00,58.3,6.6,30.01,WSW,248,2.7,2.7,13,0.00,,,0.00,WUHU216HW,2013-04-22 07:55:00,
2013-04-22 00:56:00,58.1,6.5,30.01,SW,225,2.0,2.7,13,0.00,,,0.00,WUHU216HW,2013-04-22 07:56:00,
2013-04-22 00:57:00,58.1,6.5,30.01,SW,225,1.8,2.7,13,0.00,,,0.00,WUHU216HW,2013-04-22 07:57:00,
2013-04-22 00:59:00,58.0,6.3,30.00,SW,225,2.5,2.7,13,0.00,,,0.00,WUHU216HW,2013-04-22 07:59:00,
2013-04-22 01:00:00,58.0,6.3,30.00,SW,225,2.9,3.4,13,0.00,,,0.00,WUHU216HW,2013-04-22 08:00:00,
2013-04-22 01:01:00,58.0,6.3,30.00,WSW,248,2.2,3.4,13,0.00,,,0.00,WUHU216HW,2013-04-22 08:01:00,
2013-04-22 01:02:00,58.0,6.3,30.00,SSW,203,2.5,3.4,13,0.00,,,0.00,WUHU216HW,2013-04-22 08:02:00,
2013-04-22 01:04:00,57.8,6.1,30.00,WSW,248,2.0,3.4,13,0.00,,,0.00,WUHU216HW,2013-04-22 08:04:00,
2013-04-22 01:05:00,57.8,6.1,30.00,SW,225,1.8,3.4,13,0.00,,,0.00,WUHU216HW,2013-04-22 08:05:00,
2013-04-22 01:06:00,57.6,6.0,30.00,SW,225,2.5,3.4,13,0.00,,,0.00,WUHU216HW,2013-04-22 08:06:00,
2013-04-22 01:07:00,57.6,6.0,30.00,SW,225,2.5,3.4,13,0.00,,,0.00,WUHU216HW,2013-04-22 08:07:00,
2013-04-22 01:09:00,57.6,6.0,30.00,WSW,248,2.5,3.6,13,0.00,,,0.00,WUHU216HW,2013-04-22 08:09:00,
2013-04-22 01:10:00,57.4,7.4,30.00,SW,225,1.8,3.6,14,0.00,,,0.00,WUHU216HW,2013-04-22 08:10:00,
2013-04-22 01:11:00,57.4,5.9,30.00,SW,225,2.0,3.6,13,0.00,,,0.00,WUHU216HW,2013-04-22 08:11:00,
2013-04-22 01:12:00,57.4,5.9,30.00,SW,225,2.5,3.6,13,0.00,,,0.00,WUHU216HW,2013-04-22 08:12:00,
2013-04-22 01:15:00,57.2,7.3,30.00,WSW,248,2.5,3.6,14,0.00,,,0.00,WUHU216HW,2013-04-22 08:15:00,
2013-04-22 01:16:00,57.2,7.3,30.00,SW,225,2.5,3.6,14,0.00,,,0.00,WUHU216HW,2013-04-22 08:16:00,
2013-04-22 01:17:00,57.2,8.8,30.00,SW,225,2.5,3.6,15,0.00,,,0.00,WUHU216HW,2013-04-22 08:17:00,
2013-04-22 01:18:00,57.2,8.8,30.00,SSW,203,2.9,3.6,15,0.00,,,0.00,WUHU216HW,2013-04-22 08:18:00,
2013-04-22 01:20:00,57.1,8.6,30.00,SW,225,2.5,2.9,15,0.00,,,0.00,WUHU216HW,2013-04-22 08:20:00,
2013-04-22 01:22:00,56.9,8.6,30.00,SW,225,2.2,3.4,15,0.00,,,0.00,WUHU216HW,2013-04-22 08:22:00,
2013-04-22 01:23:00,56.9,8.6,30.00,SSW,203,2.0,3.4,15,0.00,,,0.00,WUHU216HW,2013-04-22 08:23:00,
2013-04-22 01:25:00,56.9,8.6,30.00,SW,225,1.6,3.4,15,0.00,,,0.00,WUHU216HW,2013-04-22 08:25:00,
2013-04-22 01:26:00,56.9,8.6,29.99,SW,225,2.2,3.4,15,0.00,,,0.00,WUHU216HW,2013-04-22 08:26:00,
2013-04-22 01:27:00,56.9,8.6,29.99,SW,225,1.8,3.4,15,0.00,,,0.00,WUHU216HW,2013-04-22 08:27:00,
2013-04-22 01:28:00,56.9,8.6,29.99,WSW,248,1.3,3.4,15,0.00,,,0.00,WUHU216HW,2013-04-22 08:28:00,
2013-04-22 01:30:00,56.9,8.6,30.00,WSW,248,3.1,3.4,15,0.00,,,0.00,WUHU216HW,2013-04-22 08:30:00,
2013-04-22 01:31:00,56.9,8.6,30.00,SW,225,1.8,3.1,15,0.00,,,0.00,WUHU216HW,2013-04-22 08:31:00,
2013-04-22 01:32:00,56.9,8.6,30.00,WSW,248,1.1,3.1,15,0.00,,,0.00,WUHU216HW,2013-04-22 08:32:00,
2013-04-22 01:33:00,56.7,8.4,30.00,SW,225,1.1,3.1,15,0.00,,,0.00,WUHU216HW,2013-04-22 08:33:00,
2013-04-22 01:35:00,56.7,8.4,29.99,SSW,203,2.2,3.1,15,0.00,,,0.00,WUHU216HW,2013-04-22 08:35:00,
2013-04-22 01:36:00,56.7,8.4,29.99,SSW,203,1.1,3.1,15,0.00,,,0.00,WUHU216HW,2013-04-22 08:36:00,
2013-04-22 01:37:00,56.7,8.4,29.99,SW,225,1.3,3.1,15,0.00,,,0.00,WUHU216HW,2013-04-22 08:37:00,
2013-04-22 01:39:00,56.5,8.3,29.99,West,270,0.7,3.1,15,0.00,,,0.00,WUHU216HW,2013-04-22 08:39:00,
2013-04-22 01:40:00,56.5,9.8,29.99,WNW,293,0.9,2.9,16,0.00,,,0.00,WUHU216HW,2013-04-22 08:40:00,
2013-04-22 01:41:00,56.3,8.1,29.99,West,270,1.1,2.5,15,0.00,,,0.00,WUHU216HW,2013-04-22 08:41:00,
2013-04-22 01:42:00,56.3,9.7,29.99,WSW,248,1.6,2.5,16,0.00,,,0.00,WUHU216HW,2013-04-22 08:42:00,
2013-04-22 01:44:00,56.2,9.5,29.99,WSW,248,0.7,2.7,16,0.00,,,0.00,WUHU216HW,2013-04-22 08:44:00,
2013-04-22 01:45:00,56.0,9.5,29.99,SW,225,0.0,2.7,16,0.00,,,0.00,WUHU216HW,2013-04-22 08:45:00,
2013-04-22 01:46:00,56.0,7.8,29.99,SSE,158,0.0,2.7,15,0.00,,,0.00,WUHU216HW,2013-04-22 08:46:00,
2013-04-22 01:47:00,56.0,7.8,29.99,SSE,158,3.1,3.1,15,0.00,,,0.00,WUHU216HW,2013-04-22 08:47:00,
2013-04-22 01:48:00,56.0,9.5,29.99,SSE,158,3.1,3.1,16,0.00,,,0.00,WUHU216HW,2013-04-22 08:48:00,
2013-04-22 01:49:00,56.2,8.0,29.99,ESE,113,2.0,3.1,15,0.00,,,0.00,WUHU216HW,2013-04-22 08:49:00,
2013-04-22 01:51:00,56.2,8.0,29.99,West,270,0.2,3.1,15,0.00,,,0.00,WUHU216HW,2013-04-22 08:51:00,
2013-04-22 01:52:00,56.2,9.5,29.99,WSW,248,3.1,4.3,16,0.00,,,0.00,WUHU216HW,2013-04-22 08:52:00,
2013-04-22 01:53:00,56.2,9.5,29.99,WSW,248,2.0,4.3,16,0.00,,,0.00,WUHU216HW,2013-04-22 08:53:00,
2013-04-22 01:54:00,56.2,9.5,30.00,NW,315,2.2,4.3,16,0.00,,,0.00,WUHU216HW,2013-04-22 08:54:00,
2013-04-22 01:56:00,56.2,8.0,30.00,NW,315,0.0,4.3,15,0.00,,,0.00,WUHU216HW,2013-04-22 08:56:00,
2013-04-22 01:57:00,56.2,9.5,30.00,SE,135,0.0,4.3,16,0.00,,,0.00,WUHU216HW,2013-04-22 08:57:00,
2013-04-22 01:58:00,56.3,8.1,30.00,ESE,113,0.7,4.3,15,0.00,,,0.00,WUHU216HW,2013-04-22 08:58:00,
2013-04-22 02:00:00,56.5,9.8,29.99,South,180,1.1,4.3,16,0.00,,,0.00,WUHU216HW,2013-04-22 09:00:00,
2013-04-22 02:01:00,56.5,8.3,29.99,ESE,113,1.6,4.0,15,0.00,,,0.00,WUHU216HW,2013-04-22 09:01:00,
2013-04-22 02:02:00,56.5,8.3,29.99,ESE,113,1.8,4.0,15,0.00,,,0.00,WUHU216HW,2013-04-22 09:02:00,
2013-04-22 02:03:00,56.5,8.3,30.00,SE,135,1.8,2.5,15,0.00,,,0.00,WUHU216HW,2013-04-22 09:03:00,
2013-04-22 02:05:00,56.7,8.4,30.00,ESE,113,2.9,2.9,15,0.00,,,0.00,WUHU216HW,2013-04-22 09:05:00,
2013-04-22 02:06:00,56.7,8.4,29.99,ESE,113,3.1,3.1,15,0.00,,,0.00,WUHU216HW,2013-04-22 09:06:00,
2013-04-22 02:08:00,56.7,8.4,29.99,ESE,113,1.6,3.1,15,0.00,,,0.00,WUHU216HW,2013-04-22 09:08:00,
2013-04-22 02:10:00,56.9,8.6,29.99,ESE,113,1.6,3.1,15,0.00,,,0.00,WUHU216HW,2013-04-22 09:10:00,
2013-04-22 02:12:00,56.7,8.4,29.99,ESE,113,0.2,3.1,15,0.00,,,0.00,WUHU216HW,2013-04-22 09:12:00,
2013-04-22 02:13:00,56.7,8.4,29.99,NNW,338,1.3,3.1,15,0.00,,,0.00,WUHU216HW,2013-04-22 09:13:00,
2013-04-22 02:15:00,56.5,8.3,29.99,NE,45,0.0,3.1,15,0.00,,,0.00,WUHU216HW,2013-04-22 09:15:00,
2013-04-22 02:17:00,56.5,8.3,29.99,NW,315,0.4,2.5,15,0.00,,,0.00,WUHU216HW,2013-04-22 09:17:00,
2013-04-22 02:18:00,56.5,9.8,29.99,NW,315,0.2,1.8,16,0.00,,,0.00,WUHU216HW,2013-04-22 09:18:00,
2013-04-22 02:19:00,56.5,9.8,29.99,NW,315,0.0,1.8,16,0.00,,,0.00,WUHU216HW,2013-04-22 09:19:00,
2013-04-22 02:20:00,56.3,9.7,29.99,NW,315,0.0,1.3,16,0.00,,,0.00,WUHU216HW,2013-04-22 09:20:00,
2013-04-22 02:22:00,56.3,9.7,29.99,West,270,0.0,1.3,16,0.00,,,0.00,WUHU216HW,2013-04-22 09:22:00,
2013-04-22 02:23:00,56.3,9.7,29.99,WSW,248,1.1,1.1,16,0.00,,,0.00,WUHU216HW,2013-04-22 09:23:00,
2013-04-22 02:24:00,56.3,9.7,29.99,WSW,248,1.1,1.1,16,0.00,,,0.00,WUHU216HW,2013-04-22 09:24:00,
2013-04-22 02:25:00,56.2,9.5,29.99,SW,225,1.3,2.5,16,0.00,,,0.00,WUHU216HW,2013-04-22 09:25:00,
2013-04-22 02:27:00,56.2,9.5,29.99,SSW,203,1.8,2.5,16,0.00,,,0.00,WUHU216HW,2013-04-22 09:27:00,
2013-04-22 02:28:00,55.8,9.3,29.99,SW,225,2.5,2.7,16,0.00,,,0.00,WUHU216HW,2013-04-22 09:28:00,
2013-04-22 02:29:00,55.8,9.3,29.99,SW,225,2.5,2.7,16,0.00,,,0.00,WUHU216HW,2013-04-22 09:29:00,
2013-04-22 02:31:00,55.6,9.2,29.99,SW,225,1.6,3.1,16,0.00,,,0.00,WUHU216HW,2013-04-22 09:31:00,
2013-04-22 02:32:00,55.3,8.8,29.99,WSW,248,1.1,3.1,16,0.00,,,0.00,WUHU216HW,2013-04-22 09:32:00,
2013-04-22 02:34:00,55.3,8.8,29.99,WSW,248,0.7,3.1,16,0.00,,,0.00,WUHU216HW,2013-04-22 09:34:00,
2013-04-22 02:36:00,55.3,8.8,29.98,WNW,293,0.9,3.1,16,0.00,,,0.00,WUHU216HW,2013-04-22 09:36:00,
2013-04-22 02:38:00,55.3,8.8,29.98,SSW,203,2.2,3.1,16,0.00,,,0.00,WUHU216HW,2013-04-22 09:38:00,
2013-04-22 02:39:00,55.3,8.8,29.98,SW,225,1.6,3.1,16,0.00,,,0.00,WUHU216HW,2013-04-22 09:39:00,
2013-04-22 02:41:00,55.1,8.7,29.98,WSW,248,1.3,2.2,16,0.00,,,0.00,WUHU216HW,2013-04-22 09:41:00,
2013-04-22 02:43:00,55.1,8.7,29.98,WSW,248,1.1,2.2,16,0.00,,,0.00,WUHU216HW,2013-04-22 09:43:00,
2013-04-22 02:44:00,54.9,8.6,29.98,WSW,248,0.9,2.2,16,0.00,,,0.00,WUHU216HW,2013-04-22 09:44:00,
2013-04-22 02:46:00,54.7,8.4,29.98,SW,225,1.3,2.5,16,0.00,,,0.00,WUHU216HW,2013-04-22 09:46:00,
2013-04-22 02:48:00,54.7,8.4,29.98,West,270,0.7,2.5,16,0.00,,,0.00,WUHU216HW,2013-04-22 09:48:00,
2013-04-22 02:49:00,54.5,8.2,29.98,West,270,0.4,2.5,16,0.00,,,0.00,WUHU216HW,2013-04-22 09:49:00,
2013-04-22 02:51:00,54.4,8.1,29.98,WNW,293,0.4,2.5,16,0.00,,,0.00,WUHU216HW,2013-04-22 09:51:00,
2013-04-22 02:53:00,54.0,7.7,29.98,West,270,2.0,4.0,16,0.00,,,0.00,WUHU216HW,2013-04-22 09:53:00,
2013-04-22 02:54:00,54.0,7.7,29.98,West,270,1.3,4.0,16,0.00,,,0.00,WUHU216HW,2013-04-22 09:54:00,
2013-04-22 02:57:00,53.6,7.5,29.97,SW,225,1.8,4.0,16,0.00,,,0.00,WUHU216HW,2013-04-22 09:57:00,
2013-04-22 02:58:00,53.6,7.5,29.97,WSW,248,0.7,4.0,16,0.00,,,0.00,WUHU216HW,2013-04-22 09:58:00,
2013-04-22 02:59:00,53.6,9.0,29.97,West,270,0.4,4.0,17,0.00,,,0.00,WUHU216HW,2013-04-22 09:59:00,
2013-04-22 03:00:00,53.5,8.8,29.97,West,270,0.0,4.0,17,0.00,,,0.00,WUHU216HW,2013-04-22 10:00:00,
2013-04-22 03:02:00,53.5,8.8,29.97,NNE,23,1.3,4.0,17,0.00,,,0.00,WUHU216HW,2013-04-22 10:02:00,
2013-04-22 03:04:00,53.6,7.5,29.97,NNE,23,0.9,2.7,16,0.00,,,0.00,WUHU216HW,2013-04-22 10:04:00,
2013-04-22 03:05:00,53.5,7.3,29.97,NE,45,0.7,2.7,16,0.00,,,0.00,WUHU216HW,2013-04-22 10:05:00,
2013-04-22 03:07:00,53.6,7.5,29.97,NE,45,0.0,1.8,16,0.00,,,0.00,WUHU216HW,2013-04-22 10:07:00,
2013-04-22 03:09:00,53.6,7.5,29.97,NNE,23,0.0,1.8,16,0.00,,,0.00,WUHU216HW,2013-04-22 10:09:00,
2013-04-22 03:10:00,53.6,7.5,29.97,NNE,23,0.0,1.8,16,0.00,,,0.00,WUHU216HW,2013-04-22 10:10:00,
2013-04-22 03:12:00,53.6,7.5,29.97,NW,315,0.4,1.8,16,0.00,,,0.00,WUHU216HW,2013-04-22 10:12:00,
2013-04-22 03:14:00,53.6,9.0,29.97,WSW,248,1.8,1.8,17,0.00,,,0.00,WUHU216HW,2013-04-22 10:14:00,
2013-04-22 03:15:00,53.6,9.0,29.97,SW,225,1.3,1.8,17,0.00,,,0.00,WUHU216HW,2013-04-22 10:15:00,
2013-04-22 03:17:00,53.3,8.6,29.97,SW,225,1.1,1.8,17,0.00,,,0.00,WUHU216HW,2013-04-22 10:17:00,
2013-04-22 03:19:00,53.1,8.6,29.97,WSW,248,0.9,1.8,17,0.00,,,0.00,WUHU216HW,2013-04-22 10:19:00,
2013-04-22 03:20:00,52.9,8.4,29.97,WSW,248,1.1,1.8,17,0.00,,,0.00,WUHU216HW,2013-04-22 10:20:00,
2013-04-22 03:22:00,52.7,8.3,29.97,WSW,248,1.3,1.8,17,0.00,,,0.00,WUHU216HW,2013-04-22 10:22:00,
2013-04-22 03:24:00,52.6,8.1,29.97,West,270,0.9,2.0,17,0.00,,,0.00,WUHU216HW,2013-04-22 10:24:00,
2013-04-22 03:25:00,52.6,8.1,29.97,WSW,248,1.1,2.0,17,0.00,,,0.00,WUHU216HW,2013-04-22 10:25:00,
2013-04-22 03:27:00,52.4,9.5,29.97,WSW,248,1.8,2.0,18,0.00,,,0.00,WUHU216HW,2013-04-22 10:27:00,
2013-04-22 03:29:00,52.2,9.4,29.97,SW,225,1.8,2.0,18,0.00,,,0.00,WUHU216HW,2013-04-22 10:29:00,
2013-04-22 03:30:00,52.2,9.4,29.97,SW,225,1.6,2.0,18,0.00,,,0.00,WUHU216HW,2013-04-22 10:30:00,
2013-04-22 03:32:00,51.8,9.0,29.97,WNW,293,0.2,2.0,18,0.00,,,0.00,WUHU216HW,2013-04-22 10:32:00,
2013-04-22 03:35:00,51.5,8.7,29.97,WSW,248,2.2,2.2,18,0.00,,,0.00,WUHU216HW,2013-04-22 10:35:00,
2013-04-22 03:37:00,51.5,8.7,29.98,West,270,1.3,2.2,18,0.00,,,0.00,WUHU216HW,2013-04-22 10:37:00,
2013-04-22 03:40:00,51.3,8.7,29.98,WSW,248,1.6,2.2,18,0.00,,,0.00,WUHU216HW,2013-04-22 10:40:00,
2013-04-22 03:41:00,51.3,8.7,29.98,WSW,248,1.6,2.2,18,0.00,,,0.00,WUHU216HW,2013-04-22 10:41:00,
2013-04-22 03:42:00,51.1,8.5,29.98,West,270,1.3,2.2,18,0.00,,,0.00,WUHU216HW,2013-04-22 10:42:00,
2013-04-22 03:45:00,51.1,11.5,29.98,West,270,1.8,2.2,20,0.00,,,0.00,WUHU216HW,2013-04-22 10:45:00,
2013-04-22 03:46:00,50.9,11.3,29.98,West,270,2.5,2.5,20,0.00,,,0.00,WUHU216HW,2013-04-22 10:46:00,
2013-04-22 03:48:00,50.9,11.3,29.98,West,270,3.6,3.6,20,0.00,,,0.00,WUHU216HW,2013-04-22 10:48:00,
2013-04-22 03:50:00,50.8,12.2,29.98,West,270,3.4,3.8,21,0.00,,,0.00,WUHU216HW,2013-04-22 10:50:00,
2013-04-22 03:51:00,50.8,12.2,29.98,West,270,2.9,3.8,21,0.00,,,0.00,WUHU216HW,2013-04-22 10:51:00,
2013-04-22 03:54:00,50.6,12.0,29.98,West,270,2.0,4.0,21,0.00,,,0.00,WUHU216HW,2013-04-22 10:54:00,
2013-04-22 03:55:00,50.4,11.8,29.98,West,270,2.2,4.0,21,0.00,,,0.00,WUHU216HW,2013-04-22 10:55:00,
2013-04-22 03:56:00,50.4,11.8,29.98,West,270,2.5,4.0,21,0.00,,,0.00,WUHU216HW,2013-04-22 10:56:00,
2013-04-22 03:59:00,50.2,11.7,29.98,West,270,1.8,4.0,21,0.00,,,0.00,WUHU216HW,2013-04-22 10:59:00,
2013-04-22 04:00:00,50.0,11.5,29.98,West,270,2.0,4.0,21,0.00,,,0.00,WUHU216HW,2013-04-22 11:00:00,
2013-04-22 04:01:00,50.0,11.5,29.98,West,270,2.2,4.0,21,0.00,,,0.00,WUHU216HW,2013-04-22 11:01:00,
2013-04-22 04:02:00,50.0,11.5,29.98,West,270,3.1,4.0,21,0.00,,,0.00,WUHU216HW,2013-04-22 11:02:00,
2013-04-22 04:04:00,50.0,11.5,29.98,West,270,1.1,3.1,21,0.00,,,0.00,WUHU216HW,2013-04-22 11:04:00,
2013-04-22 04:06:00,50.0,11.5,29.98,WSW,248,1.8,3.1,21,0.00,,,0.00,WUHU216HW,2013-04-22 11:06:00,
2013-04-22 04:07:00,50.0,11.5,29.98,West,270,2.5,3.1,21,0.00,,,0.00,WUHU216HW,2013-04-22 11:07:00,
2013-04-22 04:09:00,49.9,11.3,29.98,WSW,248,3.4,4.0,21,0.00,,,0.00,WUHU216HW,2013-04-22 11:09:00,
2013-04-22 04:11:00,49.9,11.3,29.98,West,270,3.4,4.0,21,0.00,,,0.00,WUHU216HW,2013-04-22 11:11:00,
2013-04-22 04:12:00,49.9,11.3,29.98,WSW,248,2.5,4.0,21,0.00,,,0.00,WUHU216HW,2013-04-22 11:12:00,
2013-04-22 04:14:00,49.9,11.3,29.98,West,270,2.0,4.0,21,0.00,,,0.00,WUHU216HW,2013-04-22 11:14:00,
2013-04-22 04:16:00,49.9,11.3,29.98,WSW,248,1.8,4.0,21,0.00,,,0.00,WUHU216HW,2013-04-22 11:16:00,
2013-04-22 04:17:00,49.9,11.3,29.98,West,270,2.2,4.0,21,0.00,,,0.00,WUHU216HW,2013-04-22 11:17:00,
2013-04-22 04:19:00,50.0,11.5,29.98,WSW,248,1.6,3.4,21,0.00,,,0.00,WUHU216HW,2013-04-22 11:19:00,
2013-04-22 04:22:00,50.0,11.5,29.98,WSW,248,1.6,2.7,21,0.00,,,0.00,WUHU216HW,2013-04-22 11:22:00,
2013-04-22 04:24:00,50.0,12.4,29.98,SW,225,1.8,2.2,22,0.00,,,0.00,WUHU216HW,2013-04-22 11:24:00,
2013-04-22 04:26:00,50.2,11.7,29.98,SW,225,2.5,2.5,21,0.00,,,0.00,WUHU216HW,2013-04-22 11:26:00,
2013-04-22 04:27:00,50.2,11.7,29.98,SW,225,1.6,2.5,21,0.00,,,0.00,WUHU216HW,2013-04-22 11:27:00,
2013-04-22 04:29:00,50.0,12.4,29.98,WSW,248,3.4,3.4,22,0.00,,,0.00,WUHU216HW,2013-04-22 11:29:00,
2013-04-22 04:32:00,49.9,11.3,29.98,WSW,248,2.2,3.4,21,0.00,,,0.00,WUHU216HW,2013-04-22 11:32:00,
2013-04-22 04:33:00,49.9,11.3,29.98,WSW,248,2.2,3.4,21,0.00,,,0.00,WUHU216HW,2013-04-22 11:33:00,
2013-04-22 04:35:00,49.7,11.3,29.98,WSW,248,1.8,3.4,21,0.00,,,0.00,WUHU216HW,2013-04-22 11:35:00,
2013-04-22 04:37:00,49.7,11.3,29.98,SW,225,1.1,3.4,21,0.00,,,0.00,WUHU216HW,2013-04-22 11:37:00,
2013-04-22 04:38:00,49.7,11.3,29.98,SW,225,1.6,3.4,21,0.00,,,0.00,WUHU216HW,2013-04-22 11:38:00,
2013-04-22 04:40:00,49.7,12.2,29.98,WSW,248,2.7,2.7,22,0.00,,,0.00,WUHU216HW,2013-04-22 11:40:00,
2013-04-22 04:42:00,49.7,12.2,29.98,WSW,248,2.5,3.4,22,0.00,,,0.00,WUHU216HW,2013-04-22 11:42:00,
2013-04-22 04:43:00,49.5,11.1,29.98,WSW,248,2.2,3.4,21,0.00,,,0.00,WUHU216HW,2013-04-22 11:43:00,
2013-04-22 04:45:00,49.5,11.1,29.98,SW,225,1.1,3.4,21,0.00,,,0.00,WUHU216HW,2013-04-22 11:45:00,
2013-04-22 04:47:00,49.5,12.0,29.98,SW,225,1.1,3.4,22,0.00,,,0.00,WUHU216HW,2013-04-22 11:47:00,
2013-04-22 04:48:00,49.5,11.1,29.98,WSW,248,1.3,3.4,21,0.00,,,0.00,WUHU216HW,2013-04-22 11:48:00,
2013-04-22 04:50:00,49.5,12.0,29.98,WSW,248,1.8,3.4,22,0.00,,,0.00,WUHU216HW,2013-04-22 11:50:00,
2013-04-22 04:52:00,49.5,12.0,29.98,SW,225,3.8,3.8,22,0.00,,,0.00,WUHU216HW,2013-04-22 11:52:00,
2013-04-22 04:53:00,49.5,12.0,29.98,WSW,248,2.2,3.8,22,0.00,,,0.00,WUHU216HW,2013-04-22 11:53:00,
2013-04-22 04:55:00,49.5,11.1,29.98,WSW,248,1.8,3.8,21,0.00,,,0.00,WUHU216HW,2013-04-22 11:55:00,
2013-04-22 04:57:00,49.5,12.0,29.98,WSW,248,1.1,3.8,22,0.00,,,0.00,WUHU216HW,2013-04-22 11:57:00,
2013-04-22 04:58:00,49.5,12.0,29.98,SW,225,2.0,3.8,22,0.00,,,0.00,WUHU216HW,2013-04-22 11:58:00,
2013-04-22 04:59:00,49.5,12.0,29.98,WSW,248,2.2,3.8,22,0.00,,,0.00,WUHU216HW,2013-04-22 11:59:00,
2013-04-22 05:00:00,49.5,12.0,29.98,WSW,248,1.3,3.8,22,0.00,,,0.00,WUHU216HW,2013-04-22 12:00:00,
2013-04-22 05:02:00,49.5,12.0,29.98,WSW,248,0.9,3.4,22,0.00,,,0.00,WUHU216HW,2013-04-22 12:02:00,
2013-04-22 05:03:00,49.5,12.0,29.98,WSW,248,1.3,2.5,22,0.00,,,0.00,WUHU216HW,2013-04-22 12:03:00,
2013-04-22 05:04:00,49.5,12.0,29.98,WSW,248,1.8,2.5,22,0.00,,,0.00,WUHU216HW,2013-04-22 12:04:00,
2013-04-22 05:06:00,49.5,12.0,29.98,WSW,248,2.7,2.7,22,0.00,,,0.00,WUHU216HW,2013-04-22 12:06:00,
2013-04-22 05:07:00,49.5,12.0,29.98,WSW,248,2.2,2.7,22,0.00,,,0.00,WUHU216HW,2013-04-22 12:07:00,
2013-04-22 05:08:00,49.3,11.8,29.98,SW,225,1.6,2.7,22,0.00,,,0.00,WUHU216HW,2013-04-22 12:08:00,
2013-04-22 05:09:00,49.3,11.8,29.98,WSW,248,1.8,2.7,22,0.00,,,0.00,WUHU216HW,2013-04-22 12:09:00,
2013-04-22 05:11:00,49.3,11.8,29.98,SW,225,1.3,2.7,22,0.00,,,0.00,WUHU216HW,2013-04-22 12:11:00,
2013-04-22 05:12:00,49.3,11.8,29.98,SW,225,2.2,2.7,22,0.00,,,0.00,WUHU216HW,2013-04-22 12:12:00,
2013-04-22 05:14:00,49.3,11.8,29.98,SSW,203,2.0,2.7,22,0.00,,,0.00,WUHU216HW,2013-04-22 12:14:00,
2013-04-22 05:16:00,49.3,11.8,29.98,SW,225,1.8,2.7,22,0.00,,,0.00,WUHU216HW,2013-04-22 12:16:00,
2013-04-22 05:17:00,49.3,11.8,29.98,SW,225,1.8,2.5,22,0.00,,,0.00,WUHU216HW,2013-04-22 12:17:00,
2013-04-22 05:19:00,49.1,11.7,29.98,SW,225,1.1,2.5,22,0.00,,,0.00,WUHU216HW,2013-04-22 12:19:00,
2013-04-22 05:21:00,49.1,11.7,29.98,SW,225,2.0,2.5,22,0.00,,,0.00,WUHU216HW,2013-04-22 12:21:00,
2013-04-22 05:23:00,49.1,11.7,29.98,SW,225,1.8,2.5,22,0.00,,,0.00,WUHU216HW,2013-04-22 12:23:00,
2013-04-22 05:24:00,49.1,11.7,29.98,SW,225,1.6,2.5,22,0.00,,,0.00,WUHU216HW,2013-04-22 12:24:00,
2013-04-22 05:27:00,49.1,11.7,29.98,WSW,248,2.5,3.1,22,0.00,,,0.00,WUHU216HW,2013-04-22 12:27:00,
2013-04-22 05:28:00,49.1,11.7,29.98,WSW,248,2.2,3.1,22,0.00,,,0.00,WUHU216HW,2013-04-22 12:28:00,
2013-04-22 05:29:00,49.1,11.7,29.98,SW,225,2.0,3.1,22,0.00,,,0.00,WUHU216HW,2013-04-22 12:29:00,
2013-04-22 05:30:00,49.1,11.7,29.98,WSW,248,1.3,3.1,22,0.00,,,0.00,WUHU216HW,2013-04-22 12:30:00,
2013-04-22 05:32:00,49.1,11.7,29.98,WSW,248,2.0,3.4,22,0.00,,,0.00,WUHU216HW,2013-04-22 12:32:00,
2013-04-22 05:34:00,49.1,11.7,29.98,SW,225,2.5,3.4,22,0.00,,,0.00,WUHU216HW,2013-04-22 12:34:00,
2013-04-22 05:35:00,49.1,11.7,29.98,SW,225,1.3,3.4,22,0.00,,,0.00,WUHU216HW,2013-04-22 12:35:00,
2013-04-22 05:37:00,49.0,11.5,29.98,WSW,248,1.6,3.4,22,0.00,,,0.00,WUHU216HW,2013-04-22 12:37:00,
2013-04-22 05:39:00,49.1,11.7,29.98,WSW,248,2.2,3.4,22,0.00,,,0.00,WUHU216HW,2013-04-22 12:39:00,
2013-04-22 05:40:00,49.1,11.7,29.98,WSW,248,2.7,3.4,22,0.00,,,0.00,WUHU216HW,2013-04-22 12:40:00,
2013-04-22 05:42:00,49.0,11.5,29.98,SW,225,2.5,3.4,22,0.00,,,0.00,WUHU216HW,2013-04-22 12:42:00,
2013-04-22 05:44:00,49.0,11.5,29.98,SW,225,1.3,3.4,22,0.00,,,0.00,WUHU216HW,2013-04-22 12:44:00,
2013-04-22 05:45:00,49.0,11.5,29.98,SW,225,1.6,3.4,22,0.00,,,0.00,WUHU216HW,2013-04-22 12:45:00,
2013-04-22 05:47:00,49.0,11.5,29.98,SW,225,2.2,3.4,22,0.00,,,0.00,WUHU216HW,2013-04-22 12:47:00,
2013-04-22 05:49:00,49.0,11.5,29.98,WSW,248,1.6,3.4,22,0.00,,,0.00,WUHU216HW,2013-04-22 12:49:00,
2013-04-22 05:50:00,49.0,12.4,29.98,WSW,248,1.3,3.4,23,0.00,,,0.00,WUHU216HW,2013-04-22 12:50:00,
2013-04-22 05:52:00,49.0,12.4,29.98,WSW,248,1.3,2.5,23,0.00,,,0.00,WUHU216HW,2013-04-22 12:52:00,
2013-04-22 05:54:00,49.0,12.4,29.98,SW,225,2.5,2.5,23,0.00,,,0.00,WUHU216HW,2013-04-22 12:54:00,
2013-04-22 05:55:00,49.0,12.4,29.98,SW,225,1.8,2.5,23,0.00,,,0.00,WUHU216HW,2013-04-22 12:55:00,
2013-04-22 05:57:00,49.0,12.4,29.99,SW,225,2.0,2.5,23,0.00,,,0.00,WUHU216HW,2013-04-22 12:57:00,
2013-04-22 05:59:00,49.1,12.6,29.99,WSW,248,1.8,2.5,23,0.00,,,0.00,WUHU216HW,2013-04-22 12:59:00,
2013-04-22 06:00:00,49.1,12.6,29.99,SW,225,2.7,2.7,23,0.00,,,0.00,WUHU216HW,2013-04-22 13:00:00,
2013-04-22 06:03:00,49.1,12.6,29.99,SW,225,1.6,2.9,23,0.00,,,0.00,WUHU216HW,2013-04-22 13:03:00,
2013-04-22 06:04:00,49.3,12.8,29.99,SSW,203,2.0,2.9,23,0.00,,,0.00,WUHU216HW,2013-04-22 13:04:00,
2013-04-22 06:05:00,49.3,12.8,29.99,SSW,203,3.4,3.4,23,0.00,,,0.00,WUHU216HW,2013-04-22 13:05:00,
2013-04-22 06:06:00,49.3,12.8,29.99,SSW,203,3.4,3.4,23,0.00,,,0.00,WUHU216HW,2013-04-22 13:06:00,
2013-04-22 06:08:00,49.3,12.8,29.99,SW,225,1.8,3.6,23,0.00,,,0.00,WUHU216HW,2013-04-22 13:08:00,
2013-04-22 06:10:00,49.5,12.9,29.99,SW,225,2.7,3.6,23,0.00,,,0.00,WUHU216HW,2013-04-22 13:10:00,
2013-04-22 06:11:00,49.7,13.1,29.99,WSW,248,2.7,3.6,23,0.00,,,0.00,WUHU216HW,2013-04-22 13:11:00,
2013-04-22 06:13:00,49.9,13.2,29.99,SW,225,1.8,3.6,23,0.00,,,0.00,WUHU216HW,2013-04-22 13:13:00,
2013-04-22 06:15:00,50.0,13.4,29.99,SSW,203,2.0,3.6,23,0.00,,,0.00,WUHU216HW,2013-04-22 13:15:00,
2013-04-22 06:16:00,50.0,13.4,29.99,SSW,203,1.6,3.6,23,0.00,,,0.00,WUHU216HW,2013-04-22 13:16:00,
2013-04-22 06:17:00,50.2,13.5,29.99,SSW,203,1.1,3.4,23,0.00,,,0.00,WUHU216HW,2013-04-22 13:17:00,
2013-04-22 06:18:00,50.4,13.7,29.99,SSW,203,1.8,3.4,23,0.00,,,0.00,WUHU216HW,2013-04-22 13:18:00,
2013-04-22 06:20:00,50.8,14.0,29.99,SW,225,1.1,3.4,23,0.00,,,0.00,WUHU216HW,2013-04-22 13:20:00,
2013-04-22 06:21:00,50.8,14.0,29.99,SW,225,1.1,3.4,23,0.00,,,0.00,WUHU216HW,2013-04-22 13:21:00,
2013-04-22 06:22:00,50.8,14.0,29.99,SW,225,1.8,2.9,23,0.00,,,0.00,WUHU216HW,2013-04-22 13:22:00,
2013-04-22 06:23:00,51.1,14.3,29.99,SSW,203,1.6,2.7,23,0.00,,,0.00,WUHU216HW,2013-04-22 13:23:00,
2013-04-22 06:25:00,51.3,14.4,29.99,SSW,203,1.8,2.5,23,0.00,,,0.00,WUHU216HW,2013-04-22 13:25:00,
2013-04-22 06:26:00,51.5,14.6,29.99,SSW,203,1.8,2.5,23,0.00,,,0.00,WUHU216HW,2013-04-22 13:26:00,
2013-04-22 06:27:00,51.5,14.6,29.99,SW,225,1.1,2.5,23,0.00,,,0.00,WUHU216HW,2013-04-22 13:27:00,
2013-04-22 06:28:00,51.8,14.9,29.99,SSW,203,2.7,2.9,23,0.00,,,0.00,WUHU216HW,2013-04-22 13:28:00,
2013-04-22 06:31:00,52.0,15.0,29.99,SSW,203,2.2,3.1,23,0.00,,,0.00,WUHU216HW,2013-04-22 13:31:00,
2013-04-22 06:32:00,52.4,15.3,29.99,SSW,203,2.2,3.1,23,0.00,,,0.00,WUHU216HW,2013-04-22 13:32:00,
2013-04-22 06:35:00,52.9,14.9,29.99,South,180,1.8,3.1,22,0.00,,,0.00,WUHU216HW,2013-04-22 13:35:00,
2013-04-22 06:36:00,53.1,14.9,29.99,South,180,1.8,3.1,22,0.00,,,0.00,WUHU216HW,2013-04-22 13:36:00,
2013-04-22 06:37:00,53.3,15.1,29.99,South,180,1.8,3.1,22,0.00,,,0.00,WUHU216HW,2013-04-22 13:37:00,
2013-04-22 06:38:00,53.6,15.4,29.99,SSW,203,1.8,3.1,22,0.00,,,0.00,WUHU216HW,2013-04-22 13:38:00,
2013-04-22 06:40:00,53.8,15.6,29.99,SSW,203,2.2,2.7,22,0.00,,,0.00,WUHU216HW,2013-04-22 13:40:00,
2013-04-22 06:41:00,54.2,15.8,29.99,SSW,203,1.8,2.5,22,0.00,,,0.00,WUHU216HW,2013-04-22 13:41:00,
2013-04-22 06:42:00,54.4,15.1,29.99,SSW,203,1.8,2.5,21,0.00,,,0.00,WUHU216HW,2013-04-22 13:42:00,
2013-04-22 06:43:00,54.7,15.4,29.99,SSW,203,1.6,2.5,21,0.00,,,0.00,WUHU216HW,2013-04-22 13:43:00,
2013-04-22 06:45:00,55.1,15.8,29.99,SSW,203,1.1,2.5,21,0.00,,,0.00,WUHU216HW,2013-04-22 13:45:00,
2013-04-22 06:46:00,55.3,15.9,29.99,SSW,203,1.1,2.5,21,0.00,,,0.00,WUHU216HW,2013-04-22 13:46:00,
2013-04-22 06:47:00,55.4,16.0,29.99,SSW,203,1.1,2.5,21,0.00,,,0.00,WUHU216HW,2013-04-22 13:47:00,
2013-04-22 06:48:00,55.8,16.4,29.99,SSW,203,1.1,2.5,21,0.00,,,0.00,WUHU216HW,2013-04-22 13:48:00,
2013-04-22 06:50:00,56.2,16.7,29.99,SSW,203,1.3,2.2,21,0.00,,,0.00,WUHU216HW,2013-04-22 13:50:00,
2013-04-22 06:51:00,56.5,16.0,29.99,South,180,0.7,1.8,20,0.00,,,0.00,WUHU216HW,2013-04-22 13:51:00,
2013-04-22 06:52:00,56.5,16.0,29.99,South,180,1.1,1.8,20,0.00,,,0.00,WUHU216HW,2013-04-22 13:52:00,
2013-04-22 06:54:00,56.9,16.3,29.99,SSE,158,1.1,1.6,20,0.00,,,0.00,WUHU216HW,2013-04-22 13:54:00,
2013-04-22 06:56:00,57.2,16.6,29.99,South,180,1.1,1.6,20,0.00,,,0.00,WUHU216HW,2013-04-22 13:56:00,
2013-04-22 06:57:00,57.6,16.8,29.99,South,180,1.1,1.8,20,0.00,,,0.00,WUHU216HW,2013-04-22 13:57:00,
2013-04-22 06:59:00,58.0,17.1,29.99,SSE,158,1.1,2.5,20,0.00,,,0.00,WUHU216HW,2013-04-22 13:59:00,
2013-04-22 07:01:00,58.3,18.4,29.99,SSE,158,1.8,2.5,21,0.00,,,0.00,WUHU216HW,2013-04-22 14:01:00,
2013-04-22 07:02:00,58.7,18.7,29.99,SE,135,0.4,2.5,21,0.00,,,0.00,WUHU216HW,2013-04-22 14:02:00,
2013-04-22 07:04:00,58.9,18.8,29.99,SE,135,1.6,2.5,21,0.00,,,0.00,WUHU216HW,2013-04-22 14:04:00,
2013-04-22 07:06:00,59.4,19.3,29.99,SE,135,2.5,2.5,21,0.00,,,0.00,WUHU216HW,2013-04-22 14:06:00,
2013-04-22 07:07:00,59.6,19.4,29.99,SE,135,2.9,2.9,21,0.00,,,0.00,WUHU216HW,2013-04-22 14:07:00,
2013-04-22 07:08:00,59.6,19.4,29.99,SE,135,2.2,2.9,21,0.00,,,0.00,WUHU216HW,2013-04-22 14:08:00,
2013-04-22 07:09:00,59.9,19.8,29.99,SSE,158,2.0,3.4,21,0.00,,,0.00,WUHU216HW,2013-04-22 14:09:00,
2013-04-22 07:11:00,60.5,20.3,29.99,ESE,113,2.0,3.4,21,0.00,,,0.00,WUHU216HW,2013-04-22 14:11:00,
2013-04-22 07:12:00,60.5,20.3,29.99,SE,135,1.3,3.4,21,0.00,,,0.00,WUHU216HW,2013-04-22 14:12:00,
2013-04-22 07:13:00,60.8,20.6,29.99,SE,135,2.2,3.4,21,0.00,,,0.00,WUHU216HW,2013-04-22 14:13:00,
2013-04-22 07:15:00,61.2,20.9,29.99,ESE,113,4.3,4.7,21,0.00,,,0.00,WUHU216HW,2013-04-22 14:15:00,
2013-04-22 07:17:00,61.6,21.2,29.99,ESE,113,2.5,4.7,21,0.00,,,0.00,WUHU216HW,2013-04-22 14:17:00,
2013-04-22 07:18:00,61.9,20.5,29.99,SE,135,2.9,4.7,20,0.00,,,0.00,WUHU216HW,2013-04-22 14:18:00,
2013-04-22 07:20:00,62.3,19.2,29.99,ENE,68,2.0,4.7,19,0.00,,,0.00,WUHU216HW,2013-04-22 14:20:00,
2013-04-22 07:22:00,62.6,19.5,30.00,ESE,113,1.8,4.7,19,0.00,,,0.00,WUHU216HW,2013-04-22 14:22:00,
2013-04-22 07:24:00,63.0,19.8,30.00,ESE,113,2.5,4.7,19,0.00,,,0.00,WUHU216HW,2013-04-22 14:24:00,
2013-04-22 07:25:00,63.4,20.1,30.00,East,90,3.6,4.5,19,0.00,,,0.00,WUHU216HW,2013-04-22 14:25:00,
2013-04-22 07:27:00,63.7,20.3,30.00,East,90,2.5,4.5,19,0.00,,,0.00,WUHU216HW,2013-04-22 14:27:00,
2013-04-22 07:29:00,64.3,20.8,30.01,ENE,68,2.2,4.5,19,0.00,,,0.00,WUHU216HW,2013-04-22 14:29:00,
2013-04-22 07:30:00,64.4,19.4,30.01,ENE,68,2.7,4.5,18,0.00,,,0.00,WUHU216HW,2013-04-22 14:30:00,
2013-04-22 07:32:00,65.0,19.8,30.01,SE,135,2.0,4.5,18,0.00,,,0.00,WUHU216HW,2013-04-22 14:32:00,
2013-04-22 07:35:00,65.3,20.1,30.01,ENE,68,4.7,4.7,18,0.00,,,0.00,WUHU216HW,2013-04-22 14:35:00,
2013-04-22 07:37:00,65.9,20.5,30.02,SE,135,3.4,4.7,18,0.00,,,0.00,WUHU216HW,2013-04-22 14:37:00,
2013-04-22 07:38:00,66.1,19.1,30.02,East,90,2.5,4.7,17,0.00,,,0.00,WUHU216HW,2013-04-22 14:38:00,
2013-04-22 07:40:00,66.2,19.2,30.02,SSE,158,2.5,4.7,17,0.00,,,0.00,WUHU216HW,2013-04-22 14:40:00,
2013-04-22 07:42:00,66.6,19.5,30.02,SE,135,1.8,4.7,17,0.00,,,0.00,WUHU216HW,2013-04-22 14:42:00,
2013-04-22 07:43:00,66.6,19.5,30.02,SE,135,3.8,4.7,17,0.00,,,0.00,WUHU216HW,2013-04-22 14:43:00,
2013-04-22 07:45:00,67.1,20.0,30.02,ENE,68,2.5,4.5,17,0.00,,,0.00,WUHU216HW,2013-04-22 14:45:00,
2013-04-22 07:46:00,67.0,19.8,30.02,SE,135,2.0,4.5,17,0.00,,,0.00,WUHU216HW,2013-04-22 14:46:00,
2013-04-22 07:48:00,67.3,20.2,30.02,SE,135,4.0,4.3,17,0.00,,,0.00,WUHU216HW,2013-04-22 14:48:00,
2013-04-22 07:50:00,67.9,19.0,30.02,SSE,158,2.9,4.3,16,0.00,,,0.00,WUHU216HW,2013-04-22 14:50:00,
2013-04-22 07:51:00,67.9,19.0,30.02,SSE,158,3.1,4.3,16,0.00,,,0.00,WUHU216HW,2013-04-22 14:51:00,
2013-04-22 07:53:00,68.2,19.3,30.02,East,90,4.3,4.3,16,0.00,,,0.00,WUHU216HW,2013-04-22 14:53:00,
2013-04-22 07:56:00,68.6,19.5,30.02,ESE,113,2.5,4.3,16,0.00,,,0.00,WUHU216HW,2013-04-22 14:56:00,
2013-04-22 07:58:00,68.9,19.8,30.02,ESE,113,3.6,4.3,16,0.00,,,0.00,WUHU216HW,2013-04-22 14:58:00,
2013-04-22 08:01:00,69.5,20.3,30.02,East,90,5.1,6.3,16,0.00,,,0.00,WUHU216HW,2013-04-22 15:01:00,
2013-04-22 08:03:00,69.7,20.3,30.02,SE,135,2.2,6.3,16,0.00,,,0.00,WUHU216HW,2013-04-22 15:03:00,
2013-04-22 08:04:00,69.8,20.5,30.02,SE,135,2.5,6.3,16,0.00,,,0.00,WUHU216HW,2013-04-22 15:04:00,
2013-04-22 08:06:00,70.0,20.7,30.02,East,90,2.2,6.3,16,0.00,,,0.00,WUHU216HW,2013-04-22 15:06:00,
2013-04-22 08:08:00,70.4,21.0,30.02,ESE,113,3.4,6.3,16,0.00,,,0.00,WUHU216HW,2013-04-22 15:08:00,
2013-04-22 08:09:00,70.4,19.4,30.02,ENE,68,2.9,6.3,15,0.00,,,0.00,WUHU216HW,2013-04-22 15:09:00,
2013-04-22 08:11:00,70.7,19.6,30.02,SE,135,3.1,5.1,15,0.00,,,0.00,WUHU216HW,2013-04-22 15:11:00,
2013-04-22 08:13:00,70.9,19.8,30.02,East,90,4.7,6.3,15,0.00,,,0.00,WUHU216HW,2013-04-22 15:13:00,
2013-04-22 08:14:00,71.1,19.9,30.02,ESE,113,4.7,6.3,15,0.00,,,0.00,WUHU216HW,2013-04-22 15:14:00,
2013-04-22 08:16:00,71.3,20.1,30.02,SE,135,3.1,6.3,15,0.00,,,0.00,WUHU216HW,2013-04-22 15:16:00,
2013-04-22 08:18:00,71.6,20.3,30.02,ESE,113,4.5,6.3,15,0.00,,,0.00,WUHU216HW,2013-04-22 15:18:00,
2013-04-22 08:19:00,71.6,20.3,30.02,East,90,3.4,6.3,15,0.00,,,0.00,WUHU216HW,2013-04-22 15:19:00,
2013-04-22 08:21:00,72.0,20.6,30.02,East,90,5.4,6.3,15,0.00,,,0.00,WUHU216HW,2013-04-22 15:21:00,
2013-04-22 08:24:00,72.2,19.2,30.02,ESE,113,3.4,6.3,14,0.00,,,0.00,WUHU216HW,2013-04-22 15:24:00,
2013-04-22 08:25:00,72.4,19.4,30.02,ESE,113,5.4,6.3,14,0.00,,,0.00,WUHU216HW,2013-04-22 15:25:00,
2013-04-22 08:26:00,72.5,17.8,30.02,ENE,68,5.6,6.3,13,0.00,,,0.00,WUHU216HW,2013-04-22 15:26:00,
2013-04-22 08:27:00,72.5,19.4,30.02,ESE,113,5.4,6.3,14,0.00,,,0.00,WUHU216HW,2013-04-22 15:27:00,
2013-04-22 08:29:00,72.7,18.0,30.02,ESE,113,2.5,6.3,13,0.00,,,0.00,WUHU216HW,2013-04-22 15:29:00,
2013-04-22 08:30:00,72.9,18.2,30.02,SE,135,3.6,6.3,13,0.00,,,0.00,WUHU216HW,2013-04-22 15:30:00,
2013-04-22 08:31:00,73.1,18.3,30.02,South,180,3.6,6.7,13,0.00,,,0.00,WUHU216HW,2013-04-22 15:31:00,
2013-04-22 08:33:00,73.3,18.5,30.02,ENE,68,2.7,6.7,13,0.00,,,0.00,WUHU216HW,2013-04-22 15:33:00,
2013-04-22 08:34:00,73.4,18.6,30.02,ENE,68,4.3,6.7,13,0.00,,,0.00,WUHU216HW,2013-04-22 15:34:00,
2013-04-22 08:35:00,73.4,18.6,30.02,ENE,68,3.1,6.7,13,0.00,,,0.00,WUHU216HW,2013-04-22 15:35:00,
2013-04-22 08:37:00,73.6,18.7,30.02,ESE,113,4.7,6.7,13,0.00,,,0.00,WUHU216HW,2013-04-22 15:37:00,
2013-04-22 08:38:00,73.8,18.9,30.01,ESE,113,2.7,6.7,13,0.00,,,0.00,WUHU216HW,2013-04-22 15:38:00,
2013-04-22 08:39:00,74.0,19.0,30.02,SSE,158,3.8,6.7,13,0.00,,,0.00,WUHU216HW,2013-04-22 15:39:00,
2013-04-22 08:40:00,74.0,19.0,30.02,SE,135,5.6,6.7,13,0.00,,,0.00,WUHU216HW,2013-04-22 15:40:00,
2013-04-22 08:42:00,74.2,19.1,30.02,ESE,113,2.7,5.6,13,0.00,,,0.00,WUHU216HW,2013-04-22 15:42:00,
2013-04-22 08:44:00,74.3,19.3,30.02,East,90,4.3,6.5,13,0.00,,,0.00,WUHU216HW,2013-04-22 15:44:00,
2013-04-22 08:45:00,74.5,19.4,30.01,East,90,2.5,6.5,13,0.00,,,0.00,WUHU216HW,2013-04-22 15:45:00,
2013-04-22 08:47:00,74.7,19.5,30.02,NE,45,1.6,6.5,13,0.00,,,0.00,WUHU216HW,2013-04-22 15:47:00,
2013-04-22 08:49:00,74.9,19.6,30.01,ESE,113,3.6,6.5,13,0.00,,,0.00,WUHU216HW,2013-04-22 15:49:00,
2013-04-22 08:50:00,75.1,18.1,30.02,ESE,113,5.6,6.5,12,0.00,,,0.00,WUHU216HW,2013-04-22 15:50:00,
2013-04-22 08:52:00,75.2,18.3,30.01,East,90,2.5,6.5,12,0.00,,,0.00,WUHU216HW,2013-04-22 15:52:00,
2013-04-22 08:54:00,75.4,18.4,30.02,SE,135,4.9,5.8,12,0.00,,,0.00,WUHU216HW,2013-04-22 15:54:00,
2013-04-22 08:55:00,75.4,18.4,30.02,ESE,113,5.4,5.8,12,0.00,,,0.00,WUHU216HW,2013-04-22 15:55:00,
2013-04-22 08:57:00,75.8,18.7,30.02,SE,135,2.5,5.8,12,0.00,,,0.00,WUHU216HW,2013-04-22 15:57:00,
2013-04-22 08:59:00,76.0,18.8,30.02,ESE,113,2.2,5.8,12,0.00,,,0.00,WUHU216HW,2013-04-22 15:59:00,
2013-04-22 09:00:00,76.0,18.8,30.02,East,90,2.0,5.8,12,0.00,,,0.00,WUHU216HW,2013-04-22 16:00:00,
2013-04-22 09:03:00,76.3,19.1,30.02,SE,135,3.4,5.4,12,0.00,,,0.00,WUHU216HW,2013-04-22 16:03:00,
2013-04-22 09:04:00,76.3,19.1,30.02,SE,135,3.4,5.4,12,0.00,,,0.00,WUHU216HW,2013-04-22 16:04:00,
2013-04-22 09:05:00,76.5,19.3,30.02,East,90,5.1,5.4,12,0.00,,,0.00,WUHU216HW,2013-04-22 16:05:00,
2013-04-22 09:08:00,76.7,19.5,30.02,East,90,5.1,6.0,12,0.00,,,0.00,WUHU216HW,2013-04-22 16:08:00,
2013-04-22 09:10:00,76.7,19.5,30.02,East,90,4.5,6.0,12,0.00,,,0.00,WUHU216HW,2013-04-22 16:10:00,
2013-04-22 09:11:00,76.9,17.9,30.02,East,90,3.6,6.9,11,0.00,,,0.00,WUHU216HW,2013-04-22 16:11:00,
2013-04-22 09:13:00,77.0,18.0,30.02,ENE,68,1.8,6.9,11,0.00,,,0.00,WUHU216HW,2013-04-22 16:13:00,
2013-04-22 09:15:00,76.9,17.9,30.02,SSW,203,1.8,6.9,11,0.00,,,0.00,WUHU216HW,2013-04-22 16:15:00,
2013-04-22 09:16:00,77.0,18.0,30.02,SSE,158,6.7,6.9,11,0.00,,,0.00,WUHU216HW,2013-04-22 16:16:00,
2013-04-22 09:19:00,77.0,18.0,30.02,South,180,0.9,6.9,11,0.00,,,0.00,WUHU216HW,2013-04-22 16:19:00,
2013-04-22 09:20:00,77.0,19.7,30.02,SSE,158,2.9,6.7,12,0.00,,,0.00,WUHU216HW,2013-04-22 16:20:00,
2013-04-22 09:21:00,77.2,19.8,30.02,East,90,6.3,6.7,12,0.00,,,0.00,WUHU216HW,2013-04-22 16:21:00,
2013-04-22 09:24:00,77.4,18.3,30.02,NNE,23,3.1,6.9,11,0.00,,,0.00,WUHU216HW,2013-04-22 16:24:00,
2013-04-22 09:25:00,77.4,18.3,30.01,ENE,68,4.0,6.9,11,0.00,,,0.00,WUHU216HW,2013-04-22 16:25:00,
2013-04-22 09:26:00,77.4,18.3,30.02,ENE,68,6.9,6.9,11,0.00,,,0.00,WUHU216HW,2013-04-22 16:26:00,
2013-04-22 09:29:00,77.6,18.5,30.02,SE,135,3.4,7.4,11,0.00,,,0.00,WUHU216HW,2013-04-22 16:29:00,
2013-04-22 09:30:00,77.6,18.5,30.02,ESE,113,4.9,7.4,11,0.00,,,0.00,WUHU216HW,2013-04-22 16:30:00,
2013-04-22 09:31:00,77.8,18.5,30.02,ESE,113,4.3,7.4,11,0.00,,,0.00,WUHU216HW,2013-04-22 16:31:00,
2013-04-22 09:34:00,78.1,18.8,30.02,ESE,113,1.3,7.4,11,0.00,,,0.00,WUHU216HW,2013-04-22 16:34:00,
2013-04-22 09:35:00,78.3,18.9,30.02,ESE,113,4.0,7.4,11,0.00,,,0.00,WUHU216HW,2013-04-22 16:35:00,
2013-04-22 09:36:00,78.3,18.9,30.02,South,180,3.4,7.4,11,0.00,,,0.00,WUHU216HW,2013-04-22 16:36:00,
2013-04-22 09:37:00,78.3,18.9,30.02,SE,135,4.0,7.4,11,0.00,,,0.00,WUHU216HW,2013-04-22 16:37:00,
2013-04-22 09:39:00,78.5,19.1,30.02,SE,135,3.8,6.9,11,0.00,,,0.00,WUHU216HW,2013-04-22 16:39:00,
2013-04-22 09:41:00,78.5,17.4,30.02,East,90,4.0,6.9,10,0.00,,,0.00,WUHU216HW,2013-04-22 16:41:00,
2013-04-22 09:42:00,78.5,17.4,30.02,SE,135,6.5,6.9,10,0.00,,,0.00,WUHU216HW,2013-04-22 16:42:00,
2013-04-22 09:45:00,78.8,19.4,30.01,SE,135,4.3,6.9,11,0.00,,,0.00,WUHU216HW,2013-04-22 16:45:00,
2013-04-22 09:46:00,78.8,19.4,30.01,ENE,68,4.3,9.2,11,0.00,,,0.00,WUHU216HW,2013-04-22 16:46:00,
2013-04-22 09:47:00,79.0,17.8,30.01,SSE,158,5.6,9.2,10,0.00,,,0.00,WUHU216HW,2013-04-22 16:47:00,
2013-04-22 09:50:00,79.2,17.9,30.01,ESE,113,6.3,9.2,10,0.00,,,0.00,WUHU216HW,2013-04-22 16:50:00,
2013-04-22 09:51:00,79.6,18.2,30.01,ESE,113,5.6,9.2,10,0.00,,,0.00,WUHU216HW,2013-04-22 16:51:00,
2013-04-22 09:52:00,79.4,18.1,30.01,SE,135,6.0,9.2,10,0.00,,,0.00,WUHU216HW,2013-04-22 16:52:00,
2013-04-22 09:55:00,79.7,18.4,30.02,East,90,5.1,9.2,10,0.00,,,0.00,WUHU216HW,2013-04-22 16:55:00,
2013-04-22 09:56:00,79.7,18.4,30.01,NE,45,7.4,8.5,10,0.00,,,0.00,WUHU216HW,2013-04-22 16:56:00,
2013-04-22 09:57:00,79.7,18.4,30.01,ENE,68,6.3,8.5,10,0.00,,,0.00,WUHU216HW,2013-04-22 16:57:00,
2013-04-22 10:00:00,79.6,18.2,30.01,ESE,113,2.7,8.5,10,0.00,,,0.00,WUHU216HW,2013-04-22 17:00:00,
2013-04-22 10:01:00,79.7,18.4,30.01,East,90,6.3,8.5,10,0.00,,,0.00,WUHU216HW,2013-04-22 17:01:00,
2013-04-22 10:02:00,79.7,18.4,30.01,East,90,8.7,8.7,10,0.00,,,0.00,WUHU216HW,2013-04-22 17:02:00,
2013-04-22 10:05:00,79.7,18.4,30.01,ENE,68,6.3,8.9,10,0.00,,,0.00,WUHU216HW,2013-04-22 17:05:00,
2013-04-22 10:06:00,79.7,18.4,30.01,NE,45,3.8,8.9,10,0.00,,,0.00,WUHU216HW,2013-04-22 17:06:00,
2013-04-22 10:07:00,79.6,18.2,30.01,ENE,68,3.4,8.9,10,0.00,,,0.00,WUHU216HW,2013-04-22 17:07:00,
2013-04-22 10:10:00,79.7,18.4,30.01,ENE,68,6.7,8.9,10,0.00,,,0.00,WUHU216HW,2013-04-22 17:10:00,
2013-04-22 10:12:00,79.7,18.4,30.01,NE,45,7.6,8.9,10,0.00,,,0.00,WUHU216HW,2013-04-22 17:12:00,
2013-04-22 10:15:00,79.7,18.4,30.01,NE,45,6.5,8.7,10,0.00,,,0.00,WUHU216HW,2013-04-22 17:15:00,
2013-04-22 10:17:00,79.6,18.2,30.01,ESE,113,3.4,8.7,10,0.00,,,0.00,WUHU216HW,2013-04-22 17:17:00,
2013-04-22 10:18:00,79.6,18.2,30.01,East,90,4.0,8.7,10,0.00,,,0.00,WUHU216HW,2013-04-22 17:18:00,
2013-04-22 10:20:00,79.9,18.6,30.00,NE,45,2.2,8.7,10,0.00,,,0.00,WUHU216HW,2013-04-22 17:20:00,
2013-04-22 10:22:00,80.1,18.6,30.00,ENE,68,8.9,8.9,10,0.00,,,0.00,WUHU216HW,2013-04-22 17:22:00,
2013-04-22 10:23:00,80.1,18.6,30.00,ENE,68,5.8,8.9,10,0.00,,,0.00,WUHU216HW,2013-04-22 17:23:00,
2013-04-22 10:25:00,80.3,18.8,30.01,ENE,68,6.3,9.4,10,0.00,,,0.00,WUHU216HW,2013-04-22 17:25:00,
2013-04-22 10:27:00,80.3,18.8,30.00,ENE,68,4.3,9.4,10,0.00,,,0.00,WUHU216HW,2013-04-22 17:27:00,
2013-04-22 10:28:00,80.3,18.8,30.00,ENE,68,4.3,9.4,10,0.00,,,0.00,WUHU216HW,2013-04-22 17:28:00,
2013-04-22 10:30:00,80.5,18.9,30.00,NE,45,11.6,11.6,8,0.00,,,0.00,WUHU216HW,2013-04-22 17:30:00,
2013-04-22 10:33:00,80.3,18.8,30.00,NNE,23,4.0,11.6,8,0.00,,,0.00,WUHU216HW,2013-04-22 17:33:00,
2013-04-22 10:36:00,80.3,18.8,30.00,NNE,23,9.4,11.6,8,0.00,,,0.00,WUHU216HW,2013-04-22 17:36:00,
2013-04-22 10:38:00,80.5,18.9,30.00,ENE,68,3.6,11.6,8,0.00,,,0.00,WUHU216HW,2013-04-22 17:38:00,
2013-04-22 10:41:00,80.6,19.1,29.99,NNE,23,6.7,12.5,8,0.00,,,0.00,WUHU216HW,2013-04-22 17:41:00,
2013-04-22 10:43:00,80.6,19.1,29.99,NE,45,6.9,12.5,8,0.00,,,0.00,WUHU216HW,2013-04-22 17:43:00,
2013-04-22 10:44:00,80.6,19.1,29.99,NNE,23,5.6,12.5,8,0.00,,,0.00,WUHU216HW,2013-04-22 17:44:00,
2013-04-22 10:46:00,80.8,19.3,29.99,ENE,68,5.4,12.5,8,0.00,,,0.00,WUHU216HW,2013-04-22 17:46:00,
2013-04-22 10:48:00,80.8,19.3,29.99,NE,45,15.0,15.0,8,0.00,,,0.00,WUHU216HW,2013-04-22 17:48:00,
2013-04-22 10:49:00,80.8,19.3,29.99,NE,45,12.1,15.0,8,0.00,,,0.00,WUHU216HW,2013-04-22 17:49:00,
2013-04-22 10:51:00,81.0,19.4,29.99,NE,45,8.9,15.0,8,0.00,,,0.00,WUHU216HW,2013-04-22 17:51:00,
2013-04-22 10:53:00,81.0,19.4,29.99,NE,45,7.4,15.0,8,0.00,,,0.00,WUHU216HW,2013-04-22 17:53:00,
2013-04-22 10:54:00,81.0,19.4,29.99,North,0,4.3,15.0,8,0.00,,,0.00,WUHU216HW,2013-04-22 17:54:00,
2013-04-22 10:56:00,81.4,19.6,29.99,NNW,338,7.6,15.0,7,0.00,,,0.00,WUHU216HW,2013-04-22 17:56:00,
2013-04-22 10:59:00,81.2,19.5,29.99,NE,45,2.2,9.4,7,0.00,,,0.00,WUHU216HW,2013-04-22 17:59:00,
2013-04-22 11:02:00,81.5,19.8,29.99,NE,45,5.8,9.4,7,0.00,,,0.00,WUHU216HW,2013-04-22 18:02:00,
2013-04-22 11:04:00,81.7,20.0,29.99,North,0,10.5,10.5,7,0.00,,,0.00,WUHU216HW,2013-04-22 18:04:00,
2013-04-22 11:05:00,81.7,20.0,29.99,NNE,23,5.1,10.5,7,0.00,,,0.00,WUHU216HW,2013-04-22 18:05:00,
2013-04-22 11:07:00,81.7,20.0,29.99,NW,315,4.0,10.5,7,0.00,,,0.00,WUHU216HW,2013-04-22 18:07:00,
2013-04-22 11:09:00,81.7,20.0,29.99,West,270,0.2,10.5,7,0.00,,,0.00,WUHU216HW,2013-04-22 18:09:00,
2013-04-22 11:10:00,81.7,20.0,29.99,NW,315,0.0,10.5,7,0.00,,,0.00,WUHU216HW,2013-04-22 18:10:00,
2013-04-22 11:12:00,81.9,20.1,29.98,SSW,203,4.0,10.5,7,0.00,,,0.00,WUHU216HW,2013-04-22 18:12:00,
2013-04-22 11:14:00,82.1,20.3,29.98,NW,315,5.6,8.9,6,0.00,,,0.00,WUHU216HW,2013-04-22 18:14:00,
2013-04-22 11:15:00,82.1,20.3,29.98,NW,315,5.6,7.2,6,0.00,,,0.00,WUHU216HW,2013-04-22 18:15:00,
2013-04-22 11:18:00,82.4,20.5,29.98,North,0,6.5,7.2,6,0.00,,,0.00,WUHU216HW,2013-04-22 18:18:00,
2013-04-22 11:19:00,82.6,20.6,29.98,WSW,248,0.9,8.1,6,0.00,,,0.00,WUHU216HW,2013-04-22 18:19:00,
2013-04-22 11:20:00,82.6,20.6,29.98,WSW,248,0.9,8.1,6,0.00,,,0.00,WUHU216HW,2013-04-22 18:20:00,
2013-04-22 11:23:00,82.4,20.5,29.98,NW,315,6.5,8.1,6,0.00,,,0.00,WUHU216HW,2013-04-22 18:23:00,
2013-04-22 11:25:00,82.6,20.6,29.98,NNW,338,3.6,10.1,6,0.00,,,0.00,WUHU216HW,2013-04-22 18:25:00,
2013-04-22 11:28:00,82.4,20.5,29.98,WSW,248,3.4,10.1,6,0.00,,,0.00,WUHU216HW,2013-04-22 18:28:00,
2013-04-22 11:30:00,82.6,20.6,29.98,SW,225,2.0,10.1,6,0.00,,,0.00,WUHU216HW,2013-04-22 18:30:00,
2013-04-22 11:33:00,82.8,20.8,29.98,North,0,2.5,10.1,6,0.00,,,0.00,WUHU216HW,2013-04-22 18:33:00,
2013-04-22 11:35:00,82.8,20.8,29.98,NE,45,3.1,4.7,6,0.00,,,0.00,WUHU216HW,2013-04-22 18:35:00,
2013-04-22 11:36:00,83.0,20.9,29.98,NNE,23,1.8,4.7,7,0.00,,,0.00,WUHU216HW,2013-04-22 18:36:00,
2013-04-22 11:38:00,83.2,21.1,29.97,NE,45,3.4,4.7,7,0.00,,,0.00,WUHU216HW,2013-04-22 18:38:00,
2013-04-22 11:40:00,83.5,21.2,29.97,North,0,7.2,7.4,6,0.00,,,0.00,WUHU216HW,2013-04-22 18:40:00,
2013-04-22 11:41:00,83.7,21.4,29.97,North,0,7.4,7.4,6,0.00,,,0.00,WUHU216HW,2013-04-22 18:41:00,
2013-04-22 11:43:00,83.9,21.5,29.97,NE,45,3.8,7.8,6,0.00,,,0.00,WUHU216HW,2013-04-22 18:43:00,
2013-04-22 11:46:00,83.9,21.5,29.97,NNW,338,2.5,7.8,6,0.00,,,0.00,WUHU216HW,2013-04-22 18:46:00,
2013-04-22 11:48:00,84.1,21.7,29.97,ENE,68,2.5,7.8,6,0.00,,,0.00,WUHU216HW,2013-04-22 18:48:00,
2013-04-22 11:51:00,84.2,21.8,29.97,North,0,3.4,7.8,6,0.00,,,0.00,WUHU216HW,2013-04-22 18:51:00,
2013-04-22 11:54:00,84.2,21.8,29.97,West,270,2.9,7.4,5,0.00,,,0.00,WUHU216HW,2013-04-22 18:54:00,
2013-04-22 11:56:00,84.1,21.7,29.97,NW,315,4.0,7.4,5,0.00,,,0.00,WUHU216HW,2013-04-22 18:56:00,
2013-04-22 11:57:00,83.9,21.5,29.97,NW,315,3.1,7.4,5,0.00,,,0.00,WUHU216HW,2013-04-22 18:57:00,
2013-04-22 11:59:00,83.7,21.4,29.96,NE,45,9.4,12.1,5,0.00,,,0.00,WUHU216HW,2013-04-22 18:59:00,
2013-04-22 12:01:00,83.9,21.5,29.96,NNE,23,9.2,12.1,6,0.00,,,0.00,WUHU216HW,2013-04-22 19:01:00,
2013-04-22 12:02:00,83.9,21.5,29.96,NE,45,10.3,12.1,6,0.00,,,0.00,WUHU216HW,2013-04-22 19:02:00,
2013-04-22 12:04:00,83.9,21.5,29.96,NNE,23,5.6,12.1,5,0.00,,,0.00,WUHU216HW,2013-04-22 19:04:00,
2013-04-22 12:06:00,84.1,21.7,29.96,WNW,293,2.5,12.1,5,0.00,,,0.00,WUHU216HW,2013-04-22 19:06:00,
2013-04-22 12:07:00,84.2,21.8,29.96,WNW,293,6.9,12.1,5,0.00,,,0.00,WUHU216HW,2013-04-22 19:07:00,
2013-04-22 12:10:00,84.2,21.8,29.96,NNW,338,7.6,10.3,3,0.00,,,0.00,WUHU216HW,2013-04-22 19:10:00,
2013-04-22 12:11:00,84.4,22.0,29.96,WNW,293,11.2,11.2,3,0.00,,,0.00,WUHU216HW,2013-04-22 19:11:00,
2013-04-22 12:12:00,84.2,21.8,29.96,NNW,338,6.3,11.2,3,0.00,,,0.00,WUHU216HW,2013-04-22 19:12:00,
2013-04-22 12:15:00,84.4,22.0,29.95,West,270,7.6,11.2,3,0.00,,,0.00,WUHU216HW,2013-04-22 19:15:00,
2013-04-22 12:16:00,84.4,22.0,29.95,West,270,4.5,11.2,3,0.00,,,0.00,WUHU216HW,2013-04-22 19:16:00,
2013-04-22 12:17:00,84.4,22.0,29.95,North,0,2.5,11.2,3,0.00,,,0.00,WUHU216HW,2013-04-22 19:17:00,
2013-04-22 12:20:00,84.2,21.8,29.95,NW,315,6.7,11.2,3,0.00,,,0.00,WUHU216HW,2013-04-22 19:20:00,
2013-04-22 12:22:00,84.4,22.0,29.95,NNW,338,6.9,10.7,3,0.00,,,0.00,WUHU216HW,2013-04-22 19:22:00,
2013-04-22 12:23:00,84.6,22.1,29.95,WNW,293,10.1,13.9,2,0.00,,,0.00,WUHU216HW,2013-04-22 19:23:00,
2013-04-22 12:25:00,84.4,22.0,29.95,West,270,12.3,13.9,3,0.00,,,0.00,WUHU216HW,2013-04-22 19:25:00,
2013-04-22 12:27:00,84.6,22.1,29.95,NNW,338,3.6,13.9,3,0.00,,,0.00,WUHU216HW,2013-04-22 19:27:00,
2013-04-22 12:28:00,84.6,22.1,29.95,West,270,4.0,13.9,3,0.00,,,0.00,WUHU216HW,2013-04-22 19:28:00,
2013-04-22 12:30:00,84.8,22.2,29.95,West,270,5.4,13.9,3,0.00,,,0.00,WUHU216HW,2013-04-22 19:30:00,
2013-04-22 12:32:00,85.0,22.3,29.95,NW,315,5.6,13.9,3,0.00,,,0.00,WUHU216HW,2013-04-22 19:32:00,
2013-04-22 12:33:00,85.0,22.3,29.95,NNE,23,3.8,12.3,2,0.00,,,0.00,WUHU216HW,2013-04-22 19:33:00,
2013-04-22 12:35:00,85.0,22.3,29.94,NE,45,6.3,10.1,3,0.00,,,0.00,WUHU216HW,2013-04-22 19:35:00,
2013-04-22 12:37:00,85.0,22.3,29.94,ENE,68,3.8,10.1,3,0.00,,,0.00,WUHU216HW,2013-04-22 19:37:00,
2013-04-22 12:38:00,85.0,22.3,29.94,North,0,13.4,13.4,3,0.00,,,0.00,WUHU216HW,2013-04-22 19:38:00,
2013-04-22 12:40:00,85.3,22.7,29.94,WSW,248,13.9,13.9,3,0.00,,,0.00,WUHU216HW,2013-04-22 19:40:00,
2013-04-22 12:42:00,85.7,23.0,29.94,SSW,203,13.2,13.9,3,0.00,,,0.00,WUHU216HW,2013-04-22 19:42:00,
2013-04-22 12:43:00,86.0,23.2,29.94,SW,225,6.0,13.9,4,0.00,,,0.00,WUHU216HW,2013-04-22 19:43:00,
2013-04-22 12:46:00,86.8,23.8,29.94,SW,225,6.5,13.9,3,0.00,,,0.00,WUHU216HW,2013-04-22 19:46:00,
2013-04-22 12:47:00,86.9,23.9,29.94,SSW,203,7.2,13.9,3,0.00,,,0.00,WUHU216HW,2013-04-22 19:47:00,
2013-04-22 12:48:00,86.9,23.9,29.94,SW,225,4.5,13.9,3,0.00,,,0.00,WUHU216HW,2013-04-22 19:48:00,
2013-04-22 12:51:00,87.3,24.2,29.94,WSW,248,8.5,13.2,3,0.00,,,0.00,WUHU216HW,2013-04-22 19:51:00,
2013-04-22 12:52:00,87.7,24.5,29.94,South,180,8.3,11.0,3,0.00,,,0.00,WUHU216HW,2013-04-22 19:52:00,
2013-04-22 12:53:00,87.7,24.5,29.94,SW,225,5.6,11.0,5,0.00,,,0.00,WUHU216HW,2013-04-22 19:53:00,
2013-04-22 12:54:00,87.8,24.7,29.94,SW,225,5.6,11.0,5,0.00,,,0.00,WUHU216HW,2013-04-22 19:54:00,
2013-04-22 12:56:00,88.2,24.9,29.94,WSW,248,10.1,10.1,3,0.00,,,0.00,WUHU216HW,2013-04-22 19:56:00,
2013-04-22 12:58:00,88.2,24.9,29.94,WSW,248,11.0,14.3,3,0.00,,,0.00,WUHU216HW,2013-04-22 19:58:00,
2013-04-22 12:59:00,88.0,24.8,29.94,SSW,203,9.2,14.3,3,0.00,,,0.00,WUHU216HW,2013-04-22 19:59:00,
2013-04-22 13:01:00,87.8,24.7,29.94,SW,225,11.2,14.3,3,0.00,,,0.00,WUHU216HW,2013-04-22 20:01:00,
2013-04-22 13:03:00,87.8,24.7,29.94,SW,225,6.3,14.3,3,0.00,,,0.00,WUHU216HW,2013-04-22 20:03:00,
2013-04-22 13:04:00,87.8,24.7,29.94,South,180,5.4,14.3,3,0.00,,,0.00,WUHU216HW,2013-04-22 20:04:00,
2013-04-22 13:06:00,88.0,24.8,29.94,SW,225,6.3,13.9,3,0.00,,,0.00,WUHU216HW,2013-04-22 20:06:00,
2013-04-22 13:08:00,88.2,24.9,29.94,SSW,203,6.3,13.9,3,0.00,,,0.00,WUHU216HW,2013-04-22 20:08:00,
2013-04-22 13:09:00,88.0,24.8,29.94,SSW,203,8.5,13.9,3,0.00,,,0.00,WUHU216HW,2013-04-22 20:09:00,
2013-04-22 13:10:00,88.2,24.9,29.94,SSW,203,4.9,13.0,3,0.00,,,0.00,WUHU216HW,2013-04-22 20:10:00,
2013-04-22 13:12:00,88.4,25.0,29.94,West,270,7.8,11.2,3,0.00,,,0.00,WUHU216HW,2013-04-22 20:12:00,
2013-04-22 13:13:00,88.6,25.2,29.94,WSW,248,9.8,11.6,3,0.00,,,0.00,WUHU216HW,2013-04-22 20:13:00,
2013-04-22 13:14:00,88.6,25.2,29.94,WSW,248,5.6,11.6,3,0.00,,,0.00,WUHU216HW,2013-04-22 20:14:00,
2013-04-22 13:15:00,88.6,25.2,29.94,WSW,248,5.4,11.6,3,0.00,,,0.00,WUHU216HW,2013-04-22 20:15:00,
2013-04-22 13:17:00,88.4,25.0,29.94,SSW,203,4.7,11.6,3,0.00,,,0.00,WUHU216HW,2013-04-22 20:17:00,
2013-04-22 13:18:00,88.6,25.2,29.94,WNW,293,13.2,13.2,3,0.00,,,0.00,WUHU216HW,2013-04-22 20:18:00,
2013-04-22 13:19:00,88.7,25.3,29.94,WNW,293,13.2,13.2,3,0.00,,,0.00,WUHU216HW,2013-04-22 20:19:00,
2013-04-22 13:20:00,88.7,25.3,29.93,West,270,5.6,15.0,3,0.00,,,0.00,WUHU216HW,2013-04-22 20:20:00,
2013-04-22 13:22:00,88.6,25.2,29.94,West,270,6.9,15.0,3,0.00,,,0.00,WUHU216HW,2013-04-22 20:22:00,
2013-04-22 13:24:00,88.4,25.0,29.94,NNW,338,6.3,15.0,3,0.00,,,0.00,WUHU216HW,2013-04-22 20:24:00,
2013-04-22 13:25:00,88.0,24.8,29.94,WNW,293,8.5,15.0,3,0.00,,,0.00,WUHU216HW,2013-04-22 20:25:00,
2013-04-22 13:27:00,87.5,24.4,29.94,NW,315,6.7,15.0,3,0.00,,,0.00,WUHU216HW,2013-04-22 20:27:00,
2013-04-22 13:29:00,87.1,24.1,29.93,West,270,5.4,15.0,3,0.00,,,0.00,WUHU216HW,2013-04-22 20:29:00,
2013-04-22 13:30:00,86.9,23.9,29.93,WSW,248,5.6,11.0,3,0.00,,,0.00,WUHU216HW,2013-04-22 20:30:00,
2013-04-22 13:32:00,86.9,23.9,29.94,West,270,6.3,13.0,3,0.00,,,0.00,WUHU216HW,2013-04-22 20:32:00,
2013-04-22 13:34:00,87.1,24.1,29.93,SW,225,10.7,13.0,3,0.00,,,0.00,WUHU216HW,2013-04-22 20:34:00,
2013-04-22 13:35:00,87.1,24.1,29.93,WSW,248,6.7,13.0,3,0.00,,,0.00,WUHU216HW,2013-04-22 20:35:00,
2013-04-22 13:37:00,87.5,24.4,29.93,South,180,8.9,13.0,5,0.00,,,0.00,WUHU216HW,2013-04-22 20:37:00,
2013-04-22 13:39:00,87.8,24.7,29.93,SSW,203,6.9,13.0,5,0.00,,,0.00,WUHU216HW,2013-04-22 20:39:00,
2013-04-22 13:40:00,88.2,24.9,29.93,SSW,203,3.6,13.0,5,0.00,,,0.00,WUHU216HW,2013-04-22 20:40:00,
2013-04-22 13:42:00,88.4,25.0,29.93,SSW,203,5.6,12.1,5,0.00,,,0.00,WUHU216HW,2013-04-22 20:42:00,
2013-04-22 13:44:00,88.7,25.3,29.93,West,270,6.9,12.1,3,0.00,,,0.00,WUHU216HW,2013-04-22 20:44:00,
2013-04-22 13:45:00,88.7,25.3,29.93,West,270,6.9,12.1,5,0.00,,,0.00,WUHU216HW,2013-04-22 20:45:00,
2013-04-22 13:47:00,89.1,25.6,29.93,WSW,248,10.7,11.6,3,0.00,,,0.00,WUHU216HW,2013-04-22 20:47:00,
2013-04-22 13:49:00,89.1,25.6,29.93,SW,225,10.1,14.1,4,0.00,,,0.00,WUHU216HW,2013-04-22 20:49:00,
2013-04-22 13:50:00,89.1,25.6,29.93,SW,225,10.3,14.1,3,0.00,,,0.00,WUHU216HW,2013-04-22 20:50:00,
2013-04-22 13:51:00,88.9,25.4,29.93,SSW,203,11.0,14.5,3,0.00,,,0.00,WUHU216HW,2013-04-22 20:51:00,
2013-04-22 13:53:00,88.7,25.3,29.93,SW,225,8.5,14.5,3,0.00,,,0.00,WUHU216HW,2013-04-22 20:53:00,
2013-04-22 13:54:00,88.7,25.3,29.93,West,270,7.6,14.5,3,0.00,,,0.00,WUHU216HW,2013-04-22 20:54:00,
2013-04-22 13:55:00,88.6,25.2,29.93,NNE,23,0.9,14.5,3,0.00,,,0.00,WUHU216HW,2013-04-22 20:55:00,
2013-04-22 13:56:00,88.7,25.3,29.93,WNW,293,1.8,14.5,3,0.00,,,0.00,WUHU216HW,2013-04-22 20:56:00,
2013-04-22 13:57:00,88.6,25.2,29.93,SW,225,8.1,14.5,3,0.00,,,0.00,WUHU216HW,2013-04-22 20:57:00,
2013-04-22 13:58:00,88.6,25.2,29.93,SW,225,8.9,14.5,5,0.00,,,0.00,WUHU216HW,2013-04-22 20:58:00,
2013-04-22 14:00:00,88.6,25.2,29.93,SW,225,4.7,14.5,5,0.00,,,0.00,WUHU216HW,2013-04-22 21:00:00,
2013-04-22 14:01:00,88.6,25.2,29.93,WSW,248,3.4,11.6,5,0.00,,,0.00,WUHU216HW,2013-04-22 21:01:00,
2013-04-22 14:02:00,88.7,25.3,29.93,West,270,1.3,11.6,5,0.00,,,0.00,WUHU216HW,2013-04-22 21:02:00,
2013-04-22 14:03:00,88.7,25.3,29.92,WSW,248,6.3,11.4,5,0.00,,,0.00,WUHU216HW,2013-04-22 21:03:00,
2013-04-22 14:06:00,88.9,25.4,29.92,West,270,14.5,17.2,3,0.00,,,0.00,WUHU216HW,2013-04-22 21:06:00,
2013-04-22 14:08:00,88.7,25.3,29.92,WSW,248,8.5,17.9,4,0.00,,,0.00,WUHU216HW,2013-04-22 21:08:00,
2013-04-22 14:11:00,88.9,25.4,29.92,WSW,248,5.1,17.9,5,0.00,,,0.00,WUHU216HW,2013-04-22 21:11:00,
2013-04-22 14:13:00,89.1,25.6,29.92,SW,225,8.5,17.9,5,0.00,,,0.00,WUHU216HW,2013-04-22 21:13:00,
2013-04-22 14:16:00,89.3,25.7,29.92,WSW,248,5.1,17.9,5,0.00,,,0.00,WUHU216HW,2013-04-22 21:16:00,
2013-04-22 14:18:00,89.5,25.8,29.92,SSW,203,4.5,11.6,4,0.00,,,0.00,WUHU216HW,2013-04-22 21:18:00,
2013-04-22 14:21:00,89.5,25.8,29.92,WSW,248,6.0,12.1,5,0.00,,,0.00,WUHU216HW,2013-04-22 21:21:00,
2013-04-22 14:23:00,89.5,25.8,29.92,SW,225,4.9,12.1,3,0.00,,,0.00,WUHU216HW,2013-04-22 21:23:00,
2013-04-22 14:26:00,89.6,25.9,29.92,West,270,8.9,15.7,3,0.00,,,0.00,WUHU216HW,2013-04-22 21:26:00,
2013-04-22 14:27:00,89.6,25.9,29.92,SW,225,8.1,15.7,3,0.00,,,0.00,WUHU216HW,2013-04-22 21:27:00,
2013-04-22 14:28:00,89.5,25.8,29.92,West,270,10.3,15.7,3,0.00,,,0.00,WUHU216HW,2013-04-22 21:28:00,
2013-04-22 14:31:00,89.3,25.7,29.92,WSW,248,14.1,15.7,3,0.00,,,0.00,WUHU216HW,2013-04-22 21:31:00,
2013-04-22 14:32:00,89.3,25.7,29.92,WSW,248,14.1,15.7,3,0.00,,,0.00,WUHU216HW,2013-04-22 21:32:00,
2013-04-22 14:33:00,89.3,25.7,29.91,WSW,248,5.4,15.7,3,0.00,,,0.00,WUHU216HW,2013-04-22 21:33:00,
2013-04-22 14:37:00,89.5,25.8,29.91,SSW,203,9.8,14.1,3,0.00,,,0.00,WUHU216HW,2013-04-22 21:37:00,
2013-04-22 14:38:00,89.6,25.9,29.91,SSW,203,6.9,14.1,3,0.00,,,0.00,WUHU216HW,2013-04-22 21:38:00,
2013-04-22 14:42:00,89.6,25.9,29.91,WSW,248,6.0,14.1,3,0.00,,,0.00,WUHU216HW,2013-04-22 21:42:00,
2013-04-22 14:43:00,89.6,25.9,29.91,SW,225,4.7,13.6,3,0.00,,,0.00,WUHU216HW,2013-04-22 21:43:00,
2013-04-22 14:44:00,89.6,25.9,29.91,WSW,248,6.3,13.6,3,0.00,,,0.00,WUHU216HW,2013-04-22 21:44:00,
2013-04-22 14:47:00,89.8,26.1,29.91,SSW,203,5.8,17.2,3,0.00,,,0.00,WUHU216HW,2013-04-22 21:47:00,
2013-04-22 14:49:00,89.8,26.1,29.91,SSW,203,6.3,17.2,3,0.00,,,0.00,WUHU216HW,2013-04-22 21:49:00,
2013-04-22 14:52:00,89.8,26.1,29.91,SW,225,7.6,17.2,3,0.00,,,0.00,WUHU216HW,2013-04-22 21:52:00,
2013-04-22 14:53:00,89.8,26.1,29.91,SSW,203,6.3,17.2,2,0.00,,,0.00,WUHU216HW,2013-04-22 21:53:00,
2013-04-22 14:54:00,89.8,26.1,29.91,WSW,248,8.5,17.2,2,0.00,,,0.00,WUHU216HW,2013-04-22 21:54:00,
2013-04-22 14:57:00,89.8,26.1,29.91,SW,225,7.8,11.6,3,0.00,,,0.00,WUHU216HW,2013-04-22 21:57:00,
2013-04-22 14:58:00,89.8,26.1,29.91,SW,225,7.8,11.6,3,0.00,,,0.00,WUHU216HW,2013-04-22 21:58:00,
2013-04-22 14:59:00,89.8,26.1,29.90,WSW,248,9.8,11.6,3,0.00,,,0.00,WUHU216HW,2013-04-22 21:59:00,
2013-04-22 15:03:00,90.0,26.2,29.90,SW,225,6.0,11.4,3,0.00,,,0.00,WUHU216HW,2013-04-22 22:03:00,
2013-04-22 15:04:00,89.8,26.1,29.90,WSW,248,11.4,11.4,3,0.00,,,0.00,WUHU216HW,2013-04-22 22:04:00,
2013-04-22 15:05:00,90.0,26.2,29.90,WSW,248,12.8,12.8,3,0.00,,,0.00,WUHU216HW,2013-04-22 22:05:00,
2013-04-22 15:08:00,89.6,25.9,29.90,SW,225,5.8,17.2,3,0.00,,,0.00,WUHU216HW,2013-04-22 22:08:00,
2013-04-22 15:09:00,89.5,25.8,29.90,West,270,6.9,17.2,3,0.00,,,0.00,WUHU216HW,2013-04-22 22:09:00,
2013-04-22 15:10:00,89.3,25.7,29.90,West,270,9.4,17.2,3,0.00,,,0.00,WUHU216HW,2013-04-22 22:10:00,
2013-04-22 15:13:00,89.3,25.7,29.90,SW,225,5.4,17.2,3,0.00,,,0.00,WUHU216HW,2013-04-22 22:13:00,
2013-04-22 15:14:00,89.3,25.7,29.90,SSW,203,7.2,17.2,3,0.00,,,0.00,WUHU216HW,2013-04-22 22:14:00,
2013-04-22 15:16:00,89.3,25.7,29.90,SSW,203,6.7,17.2,3,0.00,,,0.00,WUHU216HW,2013-04-22 22:16:00,
2013-04-22 15:18:00,89.6,25.9,29.90,SSW,203,11.2,13.4,3,0.00,,,0.00,WUHU216HW,2013-04-22 22:18:00,
2013-04-22 15:19:00,89.5,25.8,29.90,WSW,248,8.5,13.0,3,0.00,,,0.00,WUHU216HW,2013-04-22 22:19:00,
2013-04-22 15:21:00,89.5,25.8,29.90,WSW,248,6.7,12.8,3,0.00,,,0.00,WUHU216HW,2013-04-22 22:21:00,
2013-04-22 15:23:00,89.3,25.7,29.89,SSW,203,15.7,15.7,3,0.00,,,0.00,WUHU216HW,2013-04-22 22:23:00,
2013-04-22 15:24:00,89.3,25.7,29.89,WSW,248,6.9,16.3,3,0.00,,,0.00,WUHU216HW,2013-04-22 22:24:00,
2013-04-22 15:25:00,89.3,25.7,29.89,West,270,8.7,16.3,3,0.00,,,0.00,WUHU216HW,2013-04-22 22:25:00,
2013-04-22 15:26:00,89.3,25.7,29.89,West,270,7.2,16.3,3,0.00,,,0.00,WUHU216HW,2013-04-22 22:26:00,
2013-04-22 15:29:00,89.3,25.7,29.89,West,270,9.2,16.8,3,0.00,,,0.00,WUHU216HW,2013-04-22 22:29:00,
2013-04-22 15:30:00,89.1,25.6,29.89,WSW,248,8.1,16.8,3,0.00,,,0.00,WUHU216HW,2013-04-22 22:30:00,
2013-04-22 15:31:00,88.9,25.4,29.89,SSW,203,10.5,16.8,3,0.00,,,0.00,WUHU216HW,2013-04-22 22:31:00,
2013-04-22 15:34:00,88.9,25.4,29.89,WSW,248,16.1,16.8,3,0.00,,,0.00,WUHU216HW,2013-04-22 22:34:00,
2013-04-22 15:35:00,88.7,25.3,29.89,WSW,248,9.4,16.8,3,0.00,,,0.00,WUHU216HW,2013-04-22 22:35:00,
2013-04-22 15:37:00,88.6,25.2,29.89,WSW,248,9.8,16.8,3,0.00,,,0.00,WUHU216HW,2013-04-22 22:37:00,
2013-04-22 15:39:00,88.7,25.3,29.89,SW,225,6.3,16.1,3,0.00,,,0.00,WUHU216HW,2013-04-22 22:39:00,
2013-04-22 15:40:00,88.7,25.3,29.89,SW,225,5.6,16.1,3,0.00,,,0.00,WUHU216HW,2013-04-22 22:40:00,
2013-04-22 15:42:00,89.1,25.6,29.89,West,270,9.2,16.1,3,0.00,,,0.00,WUHU216HW,2013-04-22 22:42:00,
2013-04-22 15:44:00,88.7,25.3,29.89,West,270,5.4,11.9,3,0.00,,,0.00,WUHU216HW,2013-04-22 22:44:00,
2013-04-22 15:45:00,88.7,25.3,29.89,West,270,5.4,11.9,3,0.00,,,0.00,WUHU216HW,2013-04-22 22:45:00,
2013-04-22 15:47:00,88.4,25.0,29.89,NW,315,8.7,11.9,3,0.00,,,0.00,WUHU216HW,2013-04-22 22:47:00,
2013-04-22 15:50:00,88.2,24.9,29.89,WSW,248,11.0,13.6,3,0.00,,,0.00,WUHU216HW,2013-04-22 22:50:00,
2013-04-22 15:52:00,87.8,24.7,29.89,West,270,12.3,16.8,3,0.00,,,0.00,WUHU216HW,2013-04-22 22:52:00,
2013-04-22 15:55:00,87.7,24.5,29.89,WNW,293,8.5,16.8,3,0.00,,,0.00,WUHU216HW,2013-04-22 22:55:00,
2013-04-22 15:56:00,87.7,24.5,29.89,West,270,6.3,16.8,3,0.00,,,0.00,WUHU216HW,2013-04-22 22:56:00,
2013-04-22 15:57:00,87.7,24.5,29.89,WSW,248,7.2,16.8,3,0.00,,,0.00,WUHU216HW,2013-04-22 22:57:00,
2013-04-22 16:00:00,87.5,24.4,29.89,WSW,248,14.8,16.8,3,0.00,,,0.00,WUHU216HW,2013-04-22 23:00:00,
2013-04-22 16:01:00,87.5,24.4,29.89,WSW,248,5.6,16.8,3,0.00,,,0.00,WUHU216HW,2013-04-22 23:01:00,
2013-04-22 16:02:00,87.5,24.4,29.89,WSW,248,8.1,15.9,3,0.00,,,0.00,WUHU216HW,2013-04-22 23:02:00,
2013-04-22 16:05:00,87.7,24.5,29.89,West,270,7.8,14.8,3,0.00,,,0.00,WUHU216HW,2013-04-22 23:05:00,
2013-04-22 16:06:00,87.7,24.5,29.89,West,270,9.2,14.8,3,0.00,,,0.00,WUHU216HW,2013-04-22 23:06:00,
2013-04-22 16:08:00,87.8,24.7,29.89,West,270,8.5,14.8,3,0.00,,,0.00,WUHU216HW,2013-04-22 23:08:00,
2013-04-22 16:10:00,87.8,24.7,29.89,WSW,248,8.3,13.9,3,0.00,,,0.00,WUHU216HW,2013-04-22 23:10:00,
2013-04-22 16:11:00,87.8,24.7,29.89,SW,225,9.2,13.9,3,0.00,,,0.00,WUHU216HW,2013-04-22 23:11:00,
2013-04-22 16:13:00,87.7,24.5,29.89,WSW,248,5.4,13.9,3,0.00,,,0.00,WUHU216HW,2013-04-22 23:13:00,
2013-04-22 16:15:00,88.0,24.8,29.89,SW,225,9.8,12.5,5,0.00,,,0.00,WUHU216HW,2013-04-22 23:15:00,
2013-04-22 16:16:00,88.0,24.8,29.89,SW,225,7.4,12.5,3,0.00,,,0.00,WUHU216HW,2013-04-22 23:16:00,
2013-04-22 16:18:00,88.4,25.0,29.89,SW,225,9.8,13.2,3,0.00,,,0.00,WUHU216HW,2013-04-22 23:18:00,
2013-04-22 16:20:00,88.4,25.0,29.89,SW,225,9.4,13.2,3,0.00,,,0.00,WUHU216HW,2013-04-22 23:20:00,
2013-04-22 16:21:00,88.6,25.2,29.89,WSW,248,9.4,13.2,3,0.00,,,0.00,WUHU216HW,2013-04-22 23:21:00,
2013-04-22 16:23:00,88.7,25.3,29.89,SW,225,8.3,13.2,5,0.00,,,0.00,WUHU216HW,2013-04-22 23:23:00,
2013-04-22 16:25:00,88.9,25.4,29.89,WSW,248,4.3,13.2,3,0.00,,,0.00,WUHU216HW,2013-04-22 23:25:00,
2013-04-22 16:26:00,88.9,25.4,29.89,WSW,248,6.7,13.2,3,0.00,,,0.00,WUHU216HW,2013-04-22 23:26:00,
2013-04-22 16:27:00,88.9,25.4,29.89,WSW,248,6.3,13.2,3,0.00,,,0.00,WUHU216HW,2013-04-22 23:27:00,
2013-04-22 16:28:00,89.1,25.6,29.89,West,270,4.7,10.7,3,0.00,,,0.00,WUHU216HW,2013-04-22 23:28:00,
2013-04-22 16:30:00,89.3,25.7,29.89,SW,225,6.3,10.3,3,0.00,,,0.00,WUHU216HW,2013-04-22 23:30:00,
2013-04-22 16:31:00,89.3,25.7,29.89,SSW,203,13.9,13.9,3,0.00,,,0.00,WUHU216HW,2013-04-22 23:31:00,
2013-04-22 16:32:00,89.3,25.7,29.89,SSW,203,8.5,13.9,3,0.00,,,0.00,WUHU216HW,2013-04-22 23:32:00,
2013-04-22 16:33:00,89.5,25.8,29.88,WSW,248,8.5,13.9,3,0.00,,,0.00,WUHU216HW,2013-04-22 23:33:00,
2013-04-22 16:35:00,89.3,25.7,29.89,West,270,10.1,13.9,3,0.00,,,0.00,WUHU216HW,2013-04-22 23:35:00,
2013-04-22 16:36:00,89.3,25.7,29.89,WSW,248,9.2,13.9,3,0.00,,,0.00,WUHU216HW,2013-04-22 23:36:00,
2013-04-22 16:37:00,89.5,25.8,29.89,WSW,248,11.0,13.9,3,0.00,,,0.00,WUHU216HW,2013-04-22 23:37:00,
2013-04-22 16:39:00,89.3,25.7,29.88,WSW,248,10.7,13.9,3,0.00,,,0.00,WUHU216HW,2013-04-22 23:39:00,
2013-04-22 16:40:00,89.1,25.6,29.89,SSW,203,11.4,14.1,3,0.00,,,0.00,WUHU216HW,2013-04-22 23:40:00,
2013-04-22 16:41:00,89.1,25.6,29.88,WSW,248,12.1,14.1,3,0.00,,,0.00,WUHU216HW,2013-04-22 23:41:00,
2013-04-22 16:42:00,89.1,25.6,29.88,SSW,203,10.3,14.1,3,0.00,,,0.00,WUHU216HW,2013-04-22 23:42:00,
2013-04-22 16:44:00,88.9,25.4,29.88,SW,225,9.8,14.1,3,0.00,,,0.00,WUHU216HW,2013-04-22 23:44:00,
2013-04-22 16:46:00,88.9,25.4,29.89,WSW,248,9.2,14.1,3,0.00,,,0.00,WUHU216HW,2013-04-22 23:46:00,
2013-04-22 16:47:00,88.7,25.3,29.89,SW,225,9.8,14.1,3,0.00,,,0.00,WUHU216HW,2013-04-22 23:47:00,
2013-04-22 16:50:00,88.9,25.4,29.89,SSW,203,10.3,14.1,3,0.00,,,0.00,WUHU216HW,2013-04-22 23:50:00,
2013-04-22 16:51:00,88.9,25.4,29.89,SSW,203,4.9,12.1,3,0.00,,,0.00,WUHU216HW,2013-04-22 23:51:00,
2013-04-22 16:52:00,88.9,25.4,29.89,SW,225,7.6,11.9,3,0.00,,,0.00,WUHU216HW,2013-04-22 23:52:00,
2013-04-22 16:55:00,88.9,25.4,29.89,WSW,248,7.6,12.1,3,0.00,,,0.00,WUHU216HW,2013-04-22 23:55:00,
2013-04-22 16:56:00,88.9,25.4,29.89,SW,225,10.5,12.1,3,0.00,,,0.00,WUHU216HW,2013-04-22 23:56:00,
2013-04-22 16:57:00,89.1,25.6,29.89,WSW,248,6.3,12.1,3,0.00,,,0.00,WUHU216HW,2013-04-22 23:57:00,
2013-04-22 16:58:00,89.3,25.7,29.89,SW,225,3.6,12.1,3,0.00,,,0.00,WUHU216HW,2013-04-22 23:58:00,
2013-04-22 17:00:00,89.5,25.8,29.88,SW,225,9.2,12.1,3,0.00,,,0.00,WUHU216HW,2013-04-23 00:00:00,
2013-04-22 17:01:00,89.6,25.9,29.89,WSW,248,6.0,12.1,3,0.00,,,0.00,WUHU216HW,2013-04-23 00:01:00,
2013-04-22 17:02:00,89.6,25.9,29.89,WSW,248,7.6,12.1,3,0.00,,,0.00,WUHU216HW,2013-04-23 00:02:00,
2013-04-22 17:03:00,90.0,26.2,29.88,WSW,248,10.5,12.1,3,0.00,,,0.00,WUHU216HW,2013-04-23 00:03:00,
2013-04-22 17:05:00,90.2,26.4,29.89,WSW,248,6.5,11.6,3,0.00,,,0.00,WUHU216HW,2013-04-23 00:05:00,
2013-04-22 17:06:00,90.4,26.5,29.89,WSW,248,5.6,11.6,3,0.00,,,0.00,WUHU216HW,2013-04-23 00:06:00,
2013-04-22 17:07:00,90.4,26.5,29.89,SW,225,6.9,11.6,3,0.00,,,0.00,WUHU216HW,2013-04-23 00:07:00,
2013-04-22 17:08:00,90.7,26.8,29.89,SW,225,6.0,11.6,3,0.00,,,0.00,WUHU216HW,2013-04-23 00:08:00,
2013-04-22 17:10:00,90.9,26.9,29.89,West,270,8.5,11.6,2,0.00,,,0.00,WUHU216HW,2013-04-23 00:10:00,
2013-04-22 17:12:00,90.5,26.6,29.88,WSW,248,7.8,11.6,2,0.00,,,0.00,WUHU216HW,2013-04-23 00:12:00,
2013-04-22 17:14:00,90.4,26.5,29.88,WSW,248,7.4,11.6,2,0.00,,,0.00,WUHU216HW,2013-04-23 00:14:00,
2013-04-22 17:15:00,90.0,26.2,29.88,West,270,7.2,14.5,2,0.00,,,0.00,WUHU216HW,2013-04-23 00:15:00,
2013-04-22 17:17:00,90.0,26.2,29.88,WSW,248,6.7,19.2,2,0.00,,,0.00,WUHU216HW,2013-04-23 00:17:00,
2013-04-22 17:19:00,89.8,26.1,29.88,West,270,6.3,19.2,2,0.00,,,0.00,WUHU216HW,2013-04-23 00:19:00,
2013-04-22 17:20:00,89.8,26.1,29.89,WSW,248,11.4,19.2,2,0.00,,,0.00,WUHU216HW,2013-04-23 00:20:00,
2013-04-22 17:22:00,89.8,26.1,29.89,WSW,248,5.1,19.2,2,0.00,,,0.00,WUHU216HW,2013-04-23 00:22:00,
2013-04-22 17:25:00,90.2,26.4,29.89,WSW,248,7.8,19.2,2,0.00,,,0.00,WUHU216HW,2013-04-23 00:25:00,
2013-04-22 17:27:00,90.5,26.6,29.89,WSW,248,4.5,14.3,2,0.00,,,0.00,WUHU216HW,2013-04-23 00:27:00,
2013-04-22 17:30:00,91.3,27.2,29.89,WSW,248,13.4,13.4,2,0.00,,,0.00,WUHU216HW,2013-04-23 00:30:00,
2013-04-22 17:32:00,91.1,27.1,29.89,West,270,10.7,14.3,2,0.00,,,0.00,WUHU216HW,2013-04-23 00:32:00,
2013-04-22 17:33:00,91.1,27.1,29.89,WSW,248,9.8,14.3,2,0.00,,,0.00,WUHU216HW,2013-04-23 00:33:00,
2013-04-22 17:35:00,90.5,26.6,29.88,West,270,8.9,14.3,2,0.00,,,0.00,WUHU216HW,2013-04-23 00:35:00,
2013-04-22 17:36:00,90.5,26.6,29.88,WSW,248,12.1,14.8,2,0.00,,,0.00,WUHU216HW,2013-04-23 00:36:00,
2013-04-22 17:38:00,90.0,26.2,29.89,WSW,248,11.0,14.8,2,0.00,,,0.00,WUHU216HW,2013-04-23 00:38:00,
2013-04-22 17:40:00,89.5,25.8,29.89,WSW,248,6.7,14.8,2,0.00,,,0.00,WUHU216HW,2013-04-23 00:40:00,
2013-04-22 17:41:00,89.5,25.8,29.89,WSW,248,4.5,14.8,2,0.00,,,0.00,WUHU216HW,2013-04-23 00:41:00,
2013-04-22 17:43:00,89.3,25.7,29.89,SW,225,6.3,14.8,2,0.00,,,0.00,WUHU216HW,2013-04-23 00:43:00,
2013-04-22 17:45:00,89.5,25.8,29.89,West,270,9.2,14.8,2,0.00,,,0.00,WUHU216HW,2013-04-23 00:45:00,
2013-04-22 17:46:00,89.3,25.7,29.89,WSW,248,8.1,13.4,2,0.00,,,0.00,WUHU216HW,2013-04-23 00:46:00,
2013-04-22 17:48:00,89.1,25.6,29.89,SW,225,7.6,10.7,2,0.00,,,0.00,WUHU216HW,2013-04-23 00:48:00,
2013-04-22 17:50:00,88.4,25.0,29.89,West,270,7.4,12.8,2,0.00,,,0.00,WUHU216HW,2013-04-23 00:50:00,
2013-04-22 17:51:00,88.0,24.8,29.89,WSW,248,7.8,12.8,2,0.00,,,0.00,WUHU216HW,2013-04-23 00:51:00,
2013-04-22 17:53:00,87.5,24.4,29.89,WSW,248,9.4,12.8,2,0.00,,,0.00,WUHU216HW,2013-04-23 00:53:00,
2013-04-22 17:56:00,86.8,23.8,29.89,WSW,248,5.1,12.8,3,0.00,,,0.00,WUHU216HW,2013-04-23 00:56:00,
2013-04-22 17:58:00,86.2,23.4,29.89,West,270,8.3,12.8,3,0.00,,,0.00,WUHU216HW,2013-04-23 00:58:00,
2013-04-22 18:00:00,85.5,22.8,29.89,WSW,248,10.1,11.9,3,0.00,,,0.00,WUHU216HW,2013-04-23 01:00:00,
2013-04-22 18:02:00,85.1,22.5,29.89,WSW,248,3.6,11.9,3,0.00,,,0.00,WUHU216HW,2013-04-23 01:02:00,
2013-04-22 18:03:00,85.0,22.3,29.89,West,270,5.4,11.9,3,0.00,,,0.00,WUHU216HW,2013-04-23 01:03:00,
2013-04-22 18:06:00,84.6,22.1,29.89,SW,225,6.7,11.9,3,0.00,,,0.00,WUHU216HW,2013-04-23 01:06:00,
2013-04-22 18:07:00,84.2,21.8,29.89,WSW,248,7.6,11.9,3,0.00,,,0.00,WUHU216HW,2013-04-23 01:07:00,
2013-04-22 18:08:00,84.1,21.7,29.89,West,270,5.8,11.9,3,0.00,,,0.00,WUHU216HW,2013-04-23 01:08:00,
2013-04-22 18:11:00,83.7,21.4,29.89,West,270,13.4,13.4,3,0.00,,,0.00,WUHU216HW,2013-04-23 01:11:00,
2013-04-22 18:13:00,83.2,21.1,29.88,WSW,248,7.4,14.3,3,0.00,,,0.00,WUHU216HW,2013-04-23 01:13:00,
2013-04-22 18:14:00,83.0,20.9,29.88,WSW,248,8.5,14.3,3,0.00,,,0.00,WUHU216HW,2013-04-23 01:14:00,
2013-04-22 18:16:00,82.6,20.6,29.88,West,270,7.8,14.3,3,0.00,,,0.00,WUHU216HW,2013-04-23 01:16:00,
2013-04-22 18:18:00,82.4,20.5,29.89,WSW,248,4.0,14.3,3,0.00,,,0.00,WUHU216HW,2013-04-23 01:18:00,
2013-04-22 18:19:00,82.3,20.3,29.88,SW,225,4.5,14.3,3,0.00,,,0.00,WUHU216HW,2013-04-23 01:19:00,
2013-04-22 18:21:00,82.1,20.3,29.88,West,270,4.9,13.0,3,0.00,,,0.00,WUHU216HW,2013-04-23 01:21:00,
2013-04-22 18:23:00,81.7,20.0,29.88,WSW,248,4.0,10.5,3,0.00,,,0.00,WUHU216HW,2013-04-23 01:23:00,
2013-04-22 18:24:00,81.7,20.0,29.88,WSW,248,4.0,10.5,3,0.00,,,0.00,WUHU216HW,2013-04-23 01:24:00,
2013-04-22 18:27:00,81.2,19.5,29.89,West,270,9.2,9.6,3,0.00,,,0.00,WUHU216HW,2013-04-23 01:27:00,
2013-04-22 18:28:00,80.8,19.3,29.89,WSW,248,6.9,9.6,3,0.00,,,0.00,WUHU216HW,2013-04-23 01:28:00,
2013-04-22 18:29:00,80.8,19.3,29.89,WSW,248,6.5,9.6,4,0.00,,,0.00,WUHU216HW,2013-04-23 01:29:00,
2013-04-22 18:32:00,80.5,18.9,29.89,West,270,7.2,9.6,5,0.00,,,0.00,WUHU216HW,2013-04-23 01:32:00,
2013-04-22 18:34:00,79.9,18.6,29.89,West,270,4.9,9.6,5,0.00,,,0.00,WUHU216HW,2013-04-23 01:34:00,
2013-04-22 18:37:00,79.6,18.2,29.89,West,270,6.9,8.1,5,0.00,,,0.00,WUHU216HW,2013-04-23 01:37:00,
2013-04-22 18:39:00,79.2,17.9,29.89,West,270,8.5,11.4,5,0.00,,,0.00,WUHU216HW,2013-04-23 01:39:00,
2013-04-22 18:40:00,79.2,17.9,29.89,West,270,5.4,11.4,5,0.00,,,0.00,WUHU216HW,2013-04-23 01:40:00,
2013-04-22 18:42:00,78.8,17.6,29.89,West,270,9.2,11.4,5,0.00,,,0.00,WUHU216HW,2013-04-23 01:42:00,
2013-04-22 18:44:00,78.5,17.4,29.89,NW,315,4.0,11.4,5,0.00,,,0.00,WUHU216HW,2013-04-23 01:44:00,
2013-04-22 18:45:00,78.5,17.4,29.89,NW,315,4.0,11.4,5,0.00,,,0.00,WUHU216HW,2013-04-23 01:45:00,
2013-04-22 18:47:00,78.1,17.1,29.89,West,270,2.9,11.4,5,0.00,,,0.00,WUHU216HW,2013-04-23 01:47:00,
2013-04-22 18:49:00,77.9,17.0,29.89,NNW,338,1.3,9.8,5,0.00,,,0.00,WUHU216HW,2013-04-23 01:49:00,
2013-04-22 18:50:00,77.9,17.0,29.89,NNW,338,1.3,9.8,5,0.00,,,0.00,WUHU216HW,2013-04-23 01:50:00,
2013-04-22 18:52:00,77.8,16.9,29.89,North,0,1.3,9.2,5,0.00,,,0.00,WUHU216HW,2013-04-23 01:52:00,
2013-04-22 18:54:00,77.8,16.9,29.89,SSW,203,0.7,9.2,5,0.00,,,0.00,WUHU216HW,2013-04-23 01:54:00,
2013-04-22 18:55:00,77.8,16.9,29.89,West,270,0.9,9.2,5,0.00,,,0.00,WUHU216HW,2013-04-23 01:55:00,
2013-04-22 18:58:00,77.4,16.7,29.89,NNW,338,0.7,2.7,5,0.00,,,0.00,WUHU216HW,2013-04-23 01:58:00,
2013-04-22 19:00:00,77.4,16.7,29.89,NNW,338,1.8,2.7,5,0.00,,,0.00,WUHU216HW,2013-04-23 02:00:00,
2013-04-22 19:03:00,77.0,16.4,29.89,North,0,0.0,2.7,5,0.00,,,0.00,WUHU216HW,2013-04-23 02:03:00,
2013-04-22 19:05:00,77.0,16.4,29.89,North,0,0.4,3.1,5,0.00,,,0.00,WUHU216HW,2013-04-23 02:05:00,
2013-04-22 19:08:00,76.9,16.2,29.89,NNE,23,0.7,3.1,5,0.00,,,0.00,WUHU216HW,2013-04-23 02:08:00,
2013-04-22 19:10:00,76.7,16.1,29.89,NNE,23,0.4,3.1,5,0.00,,,0.00,WUHU216HW,2013-04-23 02:10:00,
2013-04-22 19:11:00,76.7,16.1,29.89,NW,315,0.0,3.1,6,0.00,,,0.00,WUHU216HW,2013-04-23 02:11:00,
2013-04-22 19:13:00,76.5,15.9,29.89,NNW,338,2.5,3.1,6,0.00,,,0.00,WUHU216HW,2013-04-23 02:13:00,
2013-04-22 19:15:00,76.3,15.9,29.89,NNE,23,2.5,2.5,6,0.00,,,0.00,WUHU216HW,2013-04-23 02:15:00,
2013-04-22 19:16:00,76.1,15.7,29.89,North,0,2.5,2.5,6,0.00,,,0.00,WUHU216HW,2013-04-23 02:16:00,
2013-04-22 19:18:00,76.0,15.5,29.89,NNW,338,1.8,2.5,6,0.00,,,0.00,WUHU216HW,2013-04-23 02:18:00,
2013-04-22 19:20:00,76.0,15.5,29.89,NW,315,1.3,2.5,6,0.00,,,0.00,WUHU216HW,2013-04-23 02:20:00,
2013-04-22 19:21:00,75.8,15.4,29.89,NW,315,1.8,2.5,6,0.00,,,0.00,WUHU216HW,2013-04-23 02:21:00,
2013-04-22 19:23:00,75.4,15.1,29.89,North,0,1.3,3.4,6,0.00,,,0.00,WUHU216HW,2013-04-23 02:23:00,
2013-04-22 19:25:00,75.2,14.9,29.89,North,0,1.8,3.4,6,0.00,,,0.00,WUHU216HW,2013-04-23 02:25:00,
2013-04-22 19:26:00,75.1,14.9,29.89,NNW,338,1.1,3.4,6,0.00,,,0.00,WUHU216HW,2013-04-23 02:26:00,
2013-04-22 19:29:00,74.9,14.7,29.89,NNW,338,1.3,3.4,6,0.00,,,0.00,WUHU216HW,2013-04-23 02:29:00,
2013-04-22 19:30:00,74.5,14.4,29.89,NNW,338,2.0,4.3,6,0.00,,,0.00,WUHU216HW,2013-04-23 02:30:00,
2013-04-22 19:31:00,74.5,14.4,29.89,North,0,2.2,4.3,6,0.00,,,0.00,WUHU216HW,2013-04-23 02:31:00,
2013-04-22 19:32:00,74.5,14.4,29.89,NNW,338,2.2,4.3,6,0.00,,,0.00,WUHU216HW,2013-04-23 02:32:00,
2013-04-22 19:34:00,74.3,14.3,29.89,NW,315,2.0,4.3,6,0.00,,,0.00,WUHU216HW,2013-04-23 02:34:00,
2013-04-22 19:35:00,74.2,14.2,29.89,NNW,338,1.8,4.3,6,0.00,,,0.00,WUHU216HW,2013-04-23 02:35:00,
2013-04-22 19:36:00,74.2,14.2,29.89,NW,315,5.4,5.4,6,0.00,,,0.00,WUHU216HW,2013-04-23 02:36:00,
2013-04-22 19:37:00,74.2,14.2,29.89,NNW,338,4.0,5.4,6,0.00,,,0.00,WUHU216HW,2013-04-23 02:37:00,
2013-04-22 19:39:00,74.0,14.0,29.89,NNW,338,3.8,5.4,6,0.00,,,0.00,WUHU216HW,2013-04-23 02:39:00,
2013-04-22 19:40:00,73.8,14.0,29.89,NW,315,4.0,5.4,6,0.00,,,0.00,WUHU216HW,2013-04-23 02:40:00,
2013-04-22 19:41:00,73.8,14.0,29.89,North,0,3.1,5.4,6,0.00,,,0.00,WUHU216HW,2013-04-23 02:41:00,
2013-04-22 19:42:00,73.8,14.0,29.89,NW,315,4.0,5.4,6,0.00,,,0.00,WUHU216HW,2013-04-23 02:42:00,
2013-04-22 19:45:00,73.6,13.8,29.89,NW,315,3.4,5.4,6,0.00,,,0.00,WUHU216HW,2013-04-23 02:45:00,
2013-04-22 19:46:00,73.6,13.8,29.89,West,270,2.7,5.4,6,0.00,,,0.00,WUHU216HW,2013-04-23 02:46:00,
2013-04-22 19:47:00,73.6,13.8,29.89,NW,315,3.4,5.1,6,0.00,,,0.00,WUHU216HW,2013-04-23 02:47:00,
2013-04-22 19:50:00,73.3,13.5,29.89,WNW,293,4.9,5.6,7,0.00,,,0.00,WUHU216HW,2013-04-23 02:50:00,
2013-04-22 19:51:00,73.1,13.4,29.90,NW,315,5.4,5.6,7,0.00,,,0.00,WUHU216HW,2013-04-23 02:51:00,
2013-04-22 19:52:00,73.1,13.4,29.90,NNW,338,3.6,5.6,7,0.00,,,0.00,WUHU216HW,2013-04-23 02:52:00,
2013-04-22 19:53:00,72.9,13.2,29.90,WNW,293,3.4,5.6,7,0.00,,,0.00,WUHU216HW,2013-04-23 02:53:00,
2013-04-22 19:55:00,72.5,13.0,29.90,NW,315,4.0,5.6,7,0.00,,,0.00,WUHU216HW,2013-04-23 02:55:00,
2013-04-22 19:56:00,72.5,13.0,29.90,NNW,338,5.8,6.0,7,0.00,,,0.00,WUHU216HW,2013-04-23 02:56:00,
2013-04-22 19:57:00,72.4,12.8,29.90,WNW,293,4.7,6.0,7,0.00,,,0.00,WUHU216HW,2013-04-23 02:57:00,
2013-04-22 19:58:00,72.4,12.8,29.90,West,270,5.6,6.0,7,0.00,,,0.00,WUHU216HW,2013-04-23 02:58:00,
2013-04-22 20:00:00,72.2,12.7,29.90,West,270,3.6,6.3,7,0.00,,,0.00,WUHU216HW,2013-04-23 03:00:00,
2013-04-22 20:01:00,72.0,12.5,29.90,NW,315,4.0,6.3,7,0.00,,,0.00,WUHU216HW,2013-04-23 03:01:00,
2013-04-22 20:02:00,72.0,12.5,29.90,NW,315,2.9,6.3,7,0.00,,,0.00,WUHU216HW,2013-04-23 03:02:00,
2013-04-22 20:03:00,72.0,12.5,29.90,West,270,4.5,6.3,7,0.00,,,0.00,WUHU216HW,2013-04-23 03:03:00,
2013-04-22 20:05:00,72.0,12.5,29.89,WNW,293,5.4,6.9,7,0.00,,,0.00,WUHU216HW,2013-04-23 03:05:00,
2013-04-22 20:06:00,72.0,12.5,29.89,NW,315,3.4,6.9,7,0.00,,,0.00,WUHU216HW,2013-04-23 03:06:00,
2013-04-22 20:07:00,72.0,12.5,29.89,NNW,338,3.4,6.9,7,0.00,,,0.00,WUHU216HW,2013-04-23 03:07:00,
2013-04-22 20:08:00,72.0,12.5,29.90,NW,315,5.4,6.9,7,0.00,,,0.00,WUHU216HW,2013-04-23 03:08:00,
2013-04-22 20:11:00,72.0,12.5,29.89,NNW,338,4.5,8.9,7,0.00,,,0.00,WUHU216HW,2013-04-23 03:11:00,
2013-04-22 20:12:00,72.0,12.5,29.90,NNW,338,4.0,8.9,7,0.00,,,0.00,WUHU216HW,2013-04-23 03:12:00,
2013-04-22 20:13:00,72.0,12.5,29.90,North,0,2.0,8.9,7,0.00,,,0.00,WUHU216HW,2013-04-23 03:13:00,
2013-04-22 20:16:00,72.0,12.5,29.90,NW,315,5.6,8.9,7,0.00,,,0.00,WUHU216HW,2013-04-23 03:16:00,
2013-04-22 20:17:00,72.0,12.5,29.90,WSW,248,5.8,8.9,7,0.00,,,0.00,WUHU216HW,2013-04-23 03:17:00,
2013-04-22 20:18:00,72.0,12.5,29.90,West,270,3.4,8.9,7,0.00,,,0.00,WUHU216HW,2013-04-23 03:18:00,
2013-04-22 20:21:00,72.0,12.5,29.90,NW,315,6.9,6.9,7,0.00,,,0.00,WUHU216HW,2013-04-23 03:21:00,
2013-04-22 20:22:00,71.8,12.4,29.90,NW,315,8.5,8.5,7,0.00,,,0.00,WUHU216HW,2013-04-23 03:22:00,
2013-04-22 20:23:00,71.8,12.4,29.90,NW,315,8.5,8.5,7,0.00,,,0.00,WUHU216HW,2013-04-23 03:23:00,
2013-04-22 20:24:00,71.8,12.4,29.90,NNW,338,7.6,8.5,7,0.00,,,0.00,WUHU216HW,2013-04-23 03:24:00,
2013-04-22 20:26:00,71.8,12.4,29.90,NNW,338,5.4,8.5,7,0.00,,,0.00,WUHU216HW,2013-04-23 03:26:00,
2013-04-22 20:27:00,71.8,12.4,29.90,NW,315,3.8,8.5,7,0.00,,,0.00,WUHU216HW,2013-04-23 03:27:00,
2013-04-22 20:28:00,71.8,12.4,29.90,WNW,293,3.8,8.5,7,0.00,,,0.00,WUHU216HW,2013-04-23 03:28:00,
2013-04-22 20:29:00,71.8,12.4,29.90,NW,315,3.6,8.5,7,0.00,,,0.00,WUHU216HW,2013-04-23 03:29:00,
2013-04-22 20:31:00,71.6,12.2,29.90,WNW,293,6.5,8.5,7,0.00,,,0.00,WUHU216HW,2013-04-23 03:31:00,
2013-04-22 20:33:00,71.6,12.2,29.90,NW,315,5.4,8.5,7,0.00,,,0.00,WUHU216HW,2013-04-23 03:33:00,
2013-04-22 20:34:00,71.6,12.2,29.90,NW,315,5.1,7.4,7,0.00,,,0.00,WUHU216HW,2013-04-23 03:34:00,
2013-04-22 20:36:00,71.5,12.1,29.90,NNW,338,2.5,6.5,7,0.00,,,0.00,WUHU216HW,2013-04-23 03:36:00,
2013-04-22 20:38:00,71.3,12.0,29.90,West,270,3.6,6.5,7,0.00,,,0.00,WUHU216HW,2013-04-23 03:38:00,
2013-04-22 20:39:00,71.3,12.0,29.90,West,270,2.0,6.5,7,0.00,,,0.00,WUHU216HW,2013-04-23 03:39:00,
2013-04-22 20:41:00,71.3,12.0,29.90,NNW,338,7.2,8.3,7,0.00,,,0.00,WUHU216HW,2013-04-23 03:41:00,
2013-04-22 20:43:00,71.3,12.0,29.90,WNW,293,4.0,8.3,7,0.00,,,0.00,WUHU216HW,2013-04-23 03:43:00,
2013-04-22 20:44:00,71.3,12.0,29.90,NNW,338,6.7,8.3,7,0.00,,,0.00,WUHU216HW,2013-04-23 03:44:00,
2013-04-22 20:47:00,71.6,12.2,29.90,NW,315,5.1,8.3,7,0.00,,,0.00,WUHU216HW,2013-04-23 03:47:00,
2013-04-22 20:48:00,71.6,12.2,29.90,West,270,11.0,11.0,7,0.00,,,0.00,WUHU216HW,2013-04-23 03:48:00,
2013-04-22 20:49:00,71.6,12.2,29.90,West,270,6.5,11.0,7,0.00,,,0.00,WUHU216HW,2013-04-23 03:49:00,
2013-04-22 20:50:00,71.6,12.2,29.90,WSW,248,8.3,11.0,7,0.00,,,0.00,WUHU216HW,2013-04-23 03:50:00,
2013-04-22 20:52:00,71.8,12.4,29.90,NW,315,5.4,11.0,7,0.00,,,0.00,WUHU216HW,2013-04-23 03:52:00,
2013-04-22 20:53:00,71.8,12.4,29.90,NW,315,6.0,11.0,7,0.00,,,0.00,WUHU216HW,2013-04-23 03:53:00,
2013-04-22 20:54:00,71.8,12.4,29.90,WNW,293,4.9,11.0,7,0.00,,,0.00,WUHU216HW,2013-04-23 03:54:00,
2013-04-22 20:55:00,71.8,12.4,29.90,NW,315,6.3,11.0,7,0.00,,,0.00,WUHU216HW,2013-04-23 03:55:00,
2013-04-22 20:57:00,71.8,12.4,29.90,NNW,338,6.3,11.0,7,0.00,,,0.00,WUHU216HW,2013-04-23 03:57:00,
2013-04-22 20:58:00,71.8,12.4,29.90,NW,315,6.0,8.9,7,0.00,,,0.00,WUHU216HW,2013-04-23 03:58:00,
2013-04-22 20:59:00,71.8,12.4,29.90,NW,315,5.4,8.9,7,0.00,,,0.00,WUHU216HW,2013-04-23 03:59:00,
2013-04-22 21:00:00,71.8,12.4,29.90,WNW,293,6.3,8.9,7,0.00,,,0.00,WUHU216HW,2013-04-23 04:00:00,
2013-04-22 21:01:00,71.8,12.4,29.90,WNW,293,6.3,8.9,7,0.00,,,0.00,WUHU216HW,2013-04-23 04:01:00,
2013-04-22 21:06:00,71.6,12.2,29.90,West,270,3.4,8.5,7,0.00,,,0.00,WUHU216HW,2013-04-23 04:06:00,
2013-04-22 21:11:00,71.1,11.8,29.90,West,270,2.5,7.6,7,0.00,,,0.00,WUHU216HW,2013-04-23 04:11:00,
2013-04-22 21:12:00,70.9,11.7,29.91,NW,315,2.9,7.6,7,0.00,,,0.00,WUHU216HW,2013-04-23 04:12:00,
2013-04-22 21:16:00,70.6,11.3,29.91,West,270,2.5,8.9,8,0.00,,,0.00,WUHU216HW,2013-04-23 04:16:00,
2013-04-22 21:17:00,70.6,11.3,29.91,NW,315,3.1,8.9,8,0.00,,,0.00,WUHU216HW,2013-04-23 04:17:00,
2013-04-22 21:21:00,70.6,11.3,29.91,WNW,293,2.5,8.9,8,0.00,,,0.00,WUHU216HW,2013-04-23 04:21:00,
2013-04-22 21:22:00,70.6,11.3,29.91,WSW,248,8.3,8.9,8,0.00,,,0.00,WUHU216HW,2013-04-23 04:22:00,
2013-04-22 21:26:00,70.4,11.3,29.91,West,270,5.1,9.8,8,0.00,,,0.00,WUHU216HW,2013-04-23 04:26:00,
2013-04-22 21:27:00,70.4,11.3,29.91,WNW,293,4.7,9.8,8,0.00,,,0.00,WUHU216HW,2013-04-23 04:27:00,
2013-04-22 21:31:00,70.4,11.3,29.91,NE,45,1.3,9.8,8,0.00,,,0.00,WUHU216HW,2013-04-23 04:31:00,
2013-04-22 21:32:00,70.4,11.3,29.91,West,270,1.1,9.8,8,0.00,,,0.00,WUHU216HW,2013-04-23 04:32:00,
2013-04-22 21:36:00,70.0,11.0,29.91,SSW,203,3.8,5.8,8,0.00,,,0.00,WUHU216HW,2013-04-23 04:36:00,
2013-04-22 21:37:00,70.0,11.0,29.91,SSW,203,2.2,4.5,8,0.00,,,0.00,WUHU216HW,2013-04-23 04:37:00,
2013-04-22 21:41:00,69.3,10.5,29.91,SE,135,1.8,4.7,8,0.00,,,0.00,WUHU216HW,2013-04-23 04:41:00,
2013-04-22 21:42:00,69.1,10.3,29.91,South,180,1.1,4.7,8,0.00,,,0.00,WUHU216HW,2013-04-23 04:42:00,
2013-04-22 21:43:00,69.1,10.3,29.91,SSE,158,1.3,4.7,8,0.00,,,0.00,WUHU216HW,2013-04-23 04:43:00,
2013-04-22 21:47:00,68.2,9.6,29.91,SW,225,1.6,4.7,8,0.00,,,0.00,WUHU216HW,2013-04-23 04:47:00,
2013-04-22 21:48:00,67.9,9.4,29.91,SW,225,1.1,4.7,8,0.00,,,0.00,WUHU216HW,2013-04-23 04:48:00,
2013-04-22 21:52:00,67.0,8.6,29.91,WSW,248,2.5,3.1,9,0.00,,,0.00,WUHU216HW,2013-04-23 04:52:00,
2013-04-22 21:53:00,66.8,8.6,29.91,SW,225,1.6,3.1,8,0.00,,,0.00,WUHU216HW,2013-04-23 04:53:00,
2013-04-22 21:54:00,66.8,8.6,29.91,WSW,248,1.8,3.1,9,0.00,,,0.00,WUHU216HW,2013-04-23 04:54:00,
2013-04-22 21:57:00,66.4,8.3,29.91,West,270,0.7,3.1,10,0.00,,,0.00,WUHU216HW,2013-04-23 04:57:00,
2013-04-22 21:58:00,66.2,8.1,29.91,WSW,248,0.7,3.1,10,0.00,,,0.00,WUHU216HW,2013-04-23 04:58:00,
2013-04-22 21:59:00,66.2,8.1,29.91,NNW,338,0.4,3.1,10,0.00,,,0.00,WUHU216HW,2013-04-23 04:59:00,
2013-04-22 22:02:00,66.1,7.9,29.91,NNW,338,0.4,2.7,10,0.00,,,0.00,WUHU216HW,2013-04-23 05:02:00,
2013-04-22 22:03:00,66.1,7.9,29.91,North,0,1.3,2.7,10,0.00,,,0.00,WUHU216HW,2013-04-23 05:03:00,
2013-04-22 22:04:00,66.1,7.9,29.91,NNE,23,2.5,2.7,10,0.00,,,0.00,WUHU216HW,2013-04-23 05:04:00,
2013-04-22 22:07:00,66.2,8.1,29.91,NE,45,2.5,3.4,10,0.00,,,0.00,WUHU216HW,2013-04-23 05:07:00,
2013-04-22 22:08:00,66.2,8.1,29.91,ENE,68,1.8,3.4,10,0.00,,,0.00,WUHU216HW,2013-04-23 05:08:00,
2013-04-22 22:09:00,66.2,8.1,29.91,ENE,68,1.1,3.4,10,0.00,,,0.00,WUHU216HW,2013-04-23 05:09:00,
2013-04-22 22:12:00,66.6,8.4,29.91,ESE,113,1.1,3.4,10,0.00,,,0.00,WUHU216HW,2013-04-23 05:12:00,
2013-04-22 22:13:00,66.4,8.3,29.91,ESE,113,1.1,3.4,10,0.00,,,0.00,WUHU216HW,2013-04-23 05:13:00,
2013-04-22 22:14:00,66.6,8.4,29.91,ESE,113,1.3,3.4,10,0.00,,,0.00,WUHU216HW,2013-04-23 05:14:00,
2013-04-22 22:17:00,66.2,8.1,29.91,SSW,203,2.5,3.1,10,0.00,,,0.00,WUHU216HW,2013-04-23 05:17:00,
2013-04-22 22:19:00,65.9,7.8,29.91,SSW,203,0.7,2.9,10,0.00,,,0.00,WUHU216HW,2013-04-23 05:19:00,
2013-04-22 22:22:00,65.3,7.4,29.91,SSW,203,0.2,2.9,10,0.00,,,0.00,WUHU216HW,2013-04-23 05:22:00,
2013-04-22 22:24:00,65.2,7.2,29.91,SE,135,0.2,2.9,10,0.00,,,0.00,WUHU216HW,2013-04-23 05:24:00,
2013-04-22 22:25:00,65.2,7.2,29.91,South,180,0.0,2.9,10,0.00,,,0.00,WUHU216HW,2013-04-23 05:25:00,
2013-04-22 22:27:00,64.8,8.6,29.90,WNW,293,1.1,1.8,11,0.00,,,0.00,WUHU216HW,2013-04-23 05:27:00,
2013-04-22 22:28:00,64.8,8.6,29.90,NW,315,1.1,1.8,11,0.00,,,0.00,WUHU216HW,2013-04-23 05:28:00,
2013-04-22 22:29:00,64.6,8.4,29.91,WNW,293,1.1,1.6,11,0.00,,,0.00,WUHU216HW,2013-04-23 05:29:00,
2013-04-22 22:30:00,64.6,8.4,29.91,NW,315,1.1,1.3,11,0.00,,,0.00,WUHU216HW,2013-04-23 05:30:00,
2013-04-22 22:33:00,64.4,8.3,29.90,WSW,248,1.3,1.8,11,0.00,,,0.00,WUHU216HW,2013-04-23 05:33:00,
2013-04-22 22:34:00,64.3,8.1,29.91,WSW,248,1.1,1.8,11,0.00,,,0.00,WUHU216HW,2013-04-23 05:34:00,
2013-04-22 22:35:00,64.3,8.1,29.91,WSW,248,2.0,2.0,11,0.00,,,0.00,WUHU216HW,2013-04-23 05:35:00,
2013-04-22 22:38:00,63.7,7.8,29.91,WNW,293,2.2,2.9,11,0.00,,,0.00,WUHU216HW,2013-04-23 05:38:00,
2013-04-22 22:39:00,63.5,7.7,29.90,NNW,338,1.3,2.9,11,0.00,,,0.00,WUHU216HW,2013-04-23 05:39:00,
2013-04-22 22:40:00,63.4,7.5,29.90,NNW,338,0.9,2.9,11,0.00,,,0.00,WUHU216HW,2013-04-23 05:40:00,
2013-04-22 22:43:00,63.0,8.8,29.90,NNW,338,1.8,2.9,12,0.00,,,0.00,WUHU216HW,2013-04-23 05:43:00,
2013-04-22 22:44:00,63.0,8.8,29.90,NNW,338,0.9,2.9,12,0.00,,,0.00,WUHU216HW,2013-04-23 05:44:00,
2013-04-22 22:45:00,63.0,8.8,29.90,NNW,338,0.7,2.9,12,0.00,,,0.00,WUHU216HW,2013-04-23 05:45:00,
2013-04-22 22:48:00,63.0,8.8,29.90,NNW,338,0.4,2.5,12,0.00,,,0.00,WUHU216HW,2013-04-23 05:48:00,
2013-04-22 22:49:00,63.0,8.8,29.90,NW,315,1.1,2.5,12,0.00,,,0.00,WUHU216HW,2013-04-23 05:49:00,
2013-04-22 22:50:00,63.0,7.2,29.90,NNW,338,0.2,2.5,11,0.00,,,0.00,WUHU216HW,2013-04-23 05:50:00,
2013-04-22 22:53:00,63.2,7.4,29.90,West,270,3.1,3.1,11,0.00,,,0.00,WUHU216HW,2013-04-23 05:53:00,
2013-04-22 22:54:00,63.2,7.4,29.90,West,270,4.0,4.0,11,0.00,,,0.00,WUHU216HW,2013-04-23 05:54:00,
2013-04-22 22:55:00,63.2,7.4,29.90,WSW,248,2.9,4.0,11,0.00,,,0.00,WUHU216HW,2013-04-23 05:55:00,
2013-04-22 22:56:00,63.2,7.4,29.90,West,270,2.2,4.0,11,0.00,,,0.00,WUHU216HW,2013-04-23 05:56:00,
2013-04-22 22:59:00,63.0,8.8,29.90,West,270,1.8,4.7,12,0.00,,,0.00,WUHU216HW,2013-04-23 05:59:00,
2013-04-22 23:00:00,63.0,8.8,29.90,West,270,1.6,4.7,12,0.00,,,0.00,WUHU216HW,2013-04-23 06:00:00,
2013-04-22 23:01:00,62.8,8.6,29.90,WSW,248,0.4,4.7,12,0.00,,,0.00,WUHU216HW,2013-04-23 06:01:00,
2013-04-22 23:04:00,62.5,8.4,29.90,West,270,1.3,4.7,12,0.00,,,0.00,WUHU216HW,2013-04-23 06:04:00,
2013-04-22 23:05:00,62.3,8.3,29.90,West,270,0.4,4.7,12,0.00,,,0.00,WUHU216HW,2013-04-23 06:05:00,
2013-04-22 23:06:00,62.3,8.3,29.90,West,270,0.4,4.7,12,0.00,,,0.00,WUHU216HW,2013-04-23 06:06:00,
2013-04-22 23:09:00,62.3,8.3,29.89,West,270,0.4,1.8,12,0.00,,,0.00,WUHU216HW,2013-04-23 06:09:00,
2013-04-22 23:11:00,62.3,8.3,29.90,WNW,293,0.2,1.3,12,0.00,,,0.00,WUHU216HW,2013-04-23 06:11:00,
2013-04-22 23:14:00,61.9,7.9,29.90,WSW,248,1.6,2.0,12,0.00,,,0.00,WUHU216HW,2013-04-23 06:14:00,
2013-04-22 23:16:00,61.9,7.9,29.89,WSW,248,1.1,2.0,12,0.00,,,0.00,WUHU216HW,2013-04-23 06:16:00,
2013-04-22 23:20:00,60.8,8.6,29.90,WSW,248,1.1,3.4,13,0.00,,,0.00,WUHU216HW,2013-04-23 06:20:00,
2013-04-22 23:21:00,60.8,8.6,29.90,SW,225,1.3,3.4,13,0.00,,,0.00,WUHU216HW,2013-04-23 06:21:00,
2013-04-22 23:22:00,60.7,8.6,29.90,SW,225,1.6,3.4,13,0.00,,,0.00,WUHU216HW,2013-04-23 06:22:00,
2013-04-22 23:25:00,60.3,8.2,29.89,WSW,248,0.4,3.4,13,0.00,,,0.00,WUHU216HW,2013-04-23 06:25:00,
2013-04-22 23:26:00,60.1,8.1,29.89,WSW,248,0.4,3.4,13,0.00,,,0.00,WUHU216HW,2013-04-23 06:26:00,
2013-04-22 23:27:00,60.1,8.1,29.89,WSW,248,0.0,3.4,13,0.00,,,0.00,WUHU216HW,2013-04-23 06:27:00,
2013-04-22 23:30:00,59.8,7.7,29.89,WSW,248,2.5,3.1,13,0.00,,,0.00,WUHU216HW,2013-04-23 06:30:00,
2013-04-22 23:31:00,59.8,7.7,29.89,SW,225,2.2,3.1,13,0.00,,,0.00,WUHU216HW,2013-04-23 06:31:00,
2013-04-22 23:32:00,59.6,9.2,29.89,SW,225,1.3,3.1,14,0.00,,,0.00,WUHU216HW,2013-04-23 06:32:00,
2013-04-22 23:33:00,59.4,9.0,29.89,WSW,248,0.9,3.1,14,0.00,,,0.00,WUHU216HW,2013-04-23 06:33:00,
2013-04-22 23:36:00,59.2,10.5,29.89,West,270,1.6,3.1,15,0.00,,,0.00,WUHU216HW,2013-04-23 06:36:00,
2013-04-22 23:37:00,59.2,10.5,29.89,West,270,1.3,3.1,15,0.00,,,0.00,WUHU216HW,2013-04-23 06:37:00,
2013-04-22 23:38:00,59.2,10.5,29.89,WSW,248,3.4,4.3,15,0.00,,,0.00,WUHU216HW,2013-04-23 06:38:00,
2013-04-22 23:41:00,59.2,10.5,29.89,WSW,248,1.3,4.3,15,0.00,,,0.00,WUHU216HW,2013-04-23 06:41:00,
2013-04-22 23:42:00,59.2,10.5,29.89,WSW,248,1.6,4.3,15,0.00,,,0.00,WUHU216HW,2013-04-23 06:42:00,
2013-04-22 23:43:00,59.2,10.5,29.89,WSW,248,1.6,4.3,15,0.00,,,0.00,WUHU216HW,2013-04-23 06:43:00,
2013-04-22 23:46:00,59.2,10.5,29.89,SW,225,0.9,4.3,15,0.00,,,0.00,WUHU216HW,2013-04-23 06:46:00,
2013-04-22 23:47:00,59.2,10.5,29.89,SSW,203,0.9,4.3,15,0.00,,,0.00,WUHU216HW,2013-04-23 06:47:00,
2013-04-22 23:48:00,59.2,10.5,29.89,WSW,248,0.7,4.3,15,0.00,,,0.00,WUHU216HW,2013-04-23 06:48:00,
2013-04-22 23:51:00,59.2,10.5,29.89,WSW,248,0.9,1.8,15,0.00,,,0.00,WUHU216HW,2013-04-23 06:51:00,
2013-04-22 23:52:00,59.2,10.5,29.89,West,270,1.1,1.8,15,0.00,,,0.00,WUHU216HW,2013-04-23 06:52:00,
2013-04-22 23:53:00,59.0,10.3,29.89,WSW,248,1.1,1.8,15,0.00,,,0.00,WUHU216HW,2013-04-23 06:53:00,
2013-04-22 23:54:00,59.0,10.3,29.89,SW,225,1.8,1.8,15,0.00,,,0.00,WUHU216HW,2013-04-23 06:54:00,
2013-04-22 23:57:00,58.7,10.0,29.89,SW,225,1.1,1.8,15,0.00,,,0.00,WUHU216HW,2013-04-23 06:57:00,
2013-04-22 23:58:00,58.7,10.0,29.89,SW,225,1.3,1.8,15,0.00,,,0.00,WUHU216HW,2013-04-23 06:58:00,
2013-04-22 23:59:00,58.7,10.0,29.89,SW,225,1.3,1.8,15,0.00,,,0.00,WUHU216HW,2013-04-23 06:59:00,